GFSMA_sfc_temp_075.txt.gz
Temp
63 65 65 64 64 64 62 62 61 64 63 63 62 62 61 61 60 60 60 66 67 70 70 70 69 68 68 67 66 66 65 65 65 65 64 64 64 63 63 63 63 63 63
65 66 65 63 63 63 61 61 61 61 63 63 61 61 62 61 59 58 59 63 65 67 69 70 69 69 68 67 66 65 65 65 65 65 64 64 63 63 63 62 62 62 62
65 65 65 61 60 60 60 58 59 60 61 63 61 62 62 61 59 58 58 59 62 64 66 68 68 68 68 67 66 66 66 65 65 65 64 63 63 63 62 62 62 62 62
66 64 63 60 60 58 58 60 59 59 59 62 60 61 61 62 60 58 58 58 58 61 63 65 66 67 67 67 66 66 66 65 65 65 64 63 63 63 62 62 62 61 61
64 62 61 61 59 59 59 59 55 59 57 58 59 58 57 59 60 62 58 57 57 58 58 63 63 64 66 66 67 67 67 66 65 65 64 64 63 63 62 62 62 62 61
62 61 61 59 59 60 55 56 57 56 57 59 63 58 55 56 59 59 59 59 57 57 57 59 60 61 63 65 66 67 68 67 66 66 65 64 64 63 63 63 62 62 62
61 62 62 59 61 59 59 58 56 57 54 55 54 53 53 54 55 56 57 58 58 58 57 59 59 59 61 63 65 67 69 69 68 67 66 65 64 64 63 63 63 63 62
61 63 63 61 62 61 57 57 58 56 58 58 56 55 50 54 55 57 57 58 58 60 60 59 59 59 59 60 61 65 67 69 69 68 68 66 65 64 64 63 63 63 63
62 61 64 63 62 62 60 60 59 61 57 55 59 56 50 50 52 54 55 57 57 57 60 60 60 60 59 59 60 61 61 62 66 68 68 66 66 65 65 64 64 63 63
63 62 62 62 63 61 60 59 59 61 60 58 54 58 58 56 52 49 53 57 58 57 58 58 60 60 60 60 60 59 57 57 60 64 66 67 66 66 66 65 64 64 64
60 61 61 59 59 60 60 59 57 57 57 58 55 53 55 54 54 51 49 52 53 56 59 57 58 59 60 60 60 60 56 55 56 61 63 65 66 66 66 66 65 65 64
57 59 59 60 60 59 58 58 58 58 56 57 60 56 55 54 52 52 50 50 52 53 56 57 56 58 59 60 61 59 55 53 55 57 60 62 64 65 66 66 65 65 65
58 57 59 59 59 60 59 58 57 57 57 56 56 56 58 56 55 55 54 52 51 52 51 54 58 59 60 59 59 57 56 52 53 55 57 59 60 62 63 64 65 66 65
60 61 59 59 60 60 59 59 58 58 57 56 56 57 57 58 57 56 54 53 49 49 50 53 54 58 59 59 58 55 59 52 52 53 54 56 57 58 59 60 62 63 64
61 61 59 59 60 60 59 59 58 58 58 58 58 58 58 58 57 57 56 55 55 49 51 53 52 56 58 59 58 59 59 57 52 51 51 52 54 56 56 57 58 59 61
59 57 59 59 58 60 60 59 59 60 59 59 60 60 59 58 58 58 58 57 55 55 52 59 59 57 57 59 58 58 59 55 53 50 50 50 51 53 54 54 55 56 57
56 56 59 60 60 60 61 60 61 61 59 59 60 58 58 60 59 59 58 59 57 57 53 58 61 61 54 56 58 57 58 58 59 52 50 50 49 49 50 51 51 52 53
56 58 57 59 61 61 61 60 60 61 59 59 60 59 59 60 58 59 58 58 58 59 56 54 58 58 52 55 57 57 57 58 59 56 51 49 49 48 48 48 48 48 48
57 58 58 58 58 59 59 59 61 61 61 60 60 59 59 59 58 58 58 57 57 57 57 55 56 59 58 53 52 53 55 56 56 56 50 49 49 49 48 47 47 47 47
60 60 60 60 60 59 59 60 60 59 60 61 60 60 60 59 59 59 58 58 57 56 56 55 55 55 56 57 52 54 55 54 53 56 52 51 49 47 46 45 45 45 45
60 61 61 60 61 61 61 59 59 58 58 57 58 58 59 57 53 55 59 58 56 55 54 54 54 55 55 55 53 56 55 56 57 54 54 49 48 45 45 44 45 44 42
59 59 59 59 59 60 52 48 54 60 60 59 57 58 59 51 51 47 46 48 55 55 53 54 55 54 55 56 57 56 53 53 52 44 44 40 42 41 43 43 42 40 40
59 59 59 59 59 59 48 46 46 58 60 60 59 59 59 60 52 58 48 44 45 45 48 57 55 55 55 56 57 55 54 52 53 40 38 34 37 36 39 40 39 39 39
50 56 58 59 59 59 37 40 43 55 58 59 60 60 59 59 59 57 56 55 52 48 42 43 48 46 41 38 41 43 43 34 34 34 35 32 34 33 37 38 39 39 39
43 42 38 38 40 38 36 37 38 48 55 56 58 47 40 46 44 42 53 52 40 32 34 35 35 34 34 34 35 36 33 34 32 29 30 32 31 31 32 32 34 37 37
36 35 33 33 33 33 34 36 37 41 44 45 36 34 34 34 36 37 38 42 32 28 29 29 29 30 30 30 31 29 32 30 29 28 28 29 29 30 28 29 30 30 30

GFSMA_sfc_temp_078.txt.gz
Temp
63 64 64 63 64 62 62 59 61 61 60 61 61 61 61 60 59 60 64 66 67 69 70 70 69 70 69 68 67 67 66 66 66 66 66 65 65 64 64 64 63 63 63
62 63 63 63 62 62 61 60 62 62 61 61 60 61 61 59 60 60 61 65 65 67 69 70 70 70 69 68 67 66 66 66 66 65 65 64 64 63 63 63 63 63 63
62 65 64 62 62 63 61 58 59 61 61 62 60 61 60 60 60 59 60 60 63 65 66 68 69 69 68 68 66 66 66 65 65 65 64 64 64 63 63 62 62 62 62
65 65 64 62 61 62 62 60 59 59 59 58 58 59 60 60 60 59 59 59 60 62 64 65 67 67 68 67 67 66 66 65 65 65 64 64 64 63 63 62 62 62 62
65 64 63 61 60 61 62 60 58 60 59 58 58 58 57 59 59 61 59 58 59 59 60 63 64 64 66 67 67 67 67 66 66 65 65 64 64 63 63 62 62 62 62
64 62 61 59 60 61 58 59 57 55 58 58 60 56 55 56 58 58 59 60 59 59 59 60 61 61 62 65 67 67 68 67 66 66 65 65 64 64 63 63 62 62 62
64 61 59 59 60 58 59 59 57 56 53 56 54 53 53 54 55 56 57 58 58 59 59 59 59 60 61 63 65 67 68 69 68 67 66 65 65 64 64 63 63 63 63
60 60 59 59 60 59 57 58 59 55 54 58 53 52 50 53 54 56 57 58 58 60 59 60 60 60 60 61 62 65 67 68 68 68 68 66 65 65 64 64 63 63 63
59 59 59 60 60 60 58 59 59 57 56 56 59 54 49 49 52 54 54 55 57 57 59 60 59 60 60 60 61 61 61 62 66 68 68 67 66 66 65 64 64 64 64
59 59 60 59 60 59 58 59 60 60 58 57 55 58 58 55 51 48 53 55 57 57 58 59 60 60 61 60 60 59 57 57 60 64 66 67 67 66 66 65 65 64 64
60 59 60 60 59 59 59 59 57 57 58 58 56 55 55 55 54 51 48 51 54 57 59 59 59 60 61 61 61 59 55 55 56 60 63 65 66 66 66 66 65 65 64
59 59 60 59 59 59 59 58 57 57 57 57 59 56 55 54 53 52 50 51 54 54 58 59 58 59 60 60 61 58 55 54 55 57 60 62 64 65 66 66 66 66 65
57 59 59 59 60 60 58 58 57 57 56 56 56 55 56 57 57 56 54 52 53 53 53 55 57 59 59 60 60 57 57 52 53 55 57 59 60 62 63 64 65 66 66
58 58 59 59 60 59 59 58 57 57 57 56 56 56 56 57 57 56 55 53 50 51 52 56 55 57 59 60 59 55 59 52 52 52 53 55 57 58 59 60 62 63 64
59 58 58 58 59 59 59 59 59 58 57 57 57 56 56 56 56 57 56 57 57 50 50 54 54 56 58 59 58 59 58 56 52 51 51 52 54 55 56 57 58 59 60
58 56 58 59 58 59 59 59 59 59 58 58 57 57 57 57 57 57 58 58 57 58 55 58 56 57 56 57 58 58 59 55 52 50 50 50 51 53 54 55 55 56 57
58 58 59 59 58 58 59 58 59 58 57 57 58 57 57 59 58 58 58 59 58 58 56 61 62 60 55 57 59 59 58 59 59 51 50 50 50 50 50 51 52 53 54
57 58 58 59 59 59 59 59 58 59 58 57 58 58 58 59 58 59 58 58 58 59 57 56 61 61 57 59 59 59 60 60 60 56 51 50 49 48 48 48 48 49 50
55 55 56 56 56 59 59 59 59 59 59 59 59 59 58 59 58 58 58 58 57 58 58 57 57 61 60 59 55 55 57 58 59 56 50 49 49 49 48 47 47 47 47
55 56 56 57 57 57 59 60 59 59 60 60 59 60 60 59 59 59 59 58 58 57 56 55 55 56 57 59 56 55 54 54 54 57 54 53 53 50 48 48 47 46 46
56 57 56 57 59 59 59 58 59 59 58 58 59 59 59 58 53 56 61 59 58 56 55 55 54 55 55 55 55 57 55 57 57 58 56 56 54 54 53 47 49 46 45
58 59 58 58 58 59 50 47 53 58 59 58 57 59 59 50 51 47 46 48 57 58 55 55 55 54 55 56 57 56 55 53 51 59 56 55 47 52 49 47 45 43 43
49 53 56 58 58 57 37 38 42 57 59 59 58 59 59 59 51 57 49 44 44 44 47 57 55 54 54 55 55 54 54 54 53 46 42 41 38 37 39 41 41 40 40
41 40 40 40 43 40 36 37 37 44 54 58 58 56 48 49 52 45 53 55 53 48 39 44 48 42 34 34 38 42 39 34 34 33 34 33 34 32 36 38 39 39 38
37 36 36 35 35 35 35 37 37 43 47 40 37 35 35 35 35 38 39 39 35 31 33 34 33 32 32 33 33 37 34 37 35 30 29 32 31 31 31 30 33 35 34
35 34 32 33 33 32 34 36 37 41 35 34 32 32 33 33 34 35 35 35 29 28 28 28 28 29 29 29 30 29 30 30 30 26 28 28 29 30 27 29 28 30 30

GFSMA_sfc_temp_081.txt.gz
Temp
68 69 68 67 64 64 64 72 73 72 71 71 72 71 71 71 71 74 75 67 68 70 71 71 70 69 69 69 68 68 67 67 67 67 66 66 66 65 65 65 64 64 64
68 69 68 67 66 63 65 73 72 71 71 72 70 71 71 71 71 71 73 73 66 67 69 70 70 70 70 69 68 67 67 67 67 66 66 65 65 65 64 64 64 64 64
66 67 67 66 66 63 63 70 71 71 70 71 70 70 70 70 69 70 73 73 69 64 66 68 69 69 69 69 67 67 67 66 66 66 66 65 64 64 64 63 63 63 63
67 66 66 65 65 63 62 68 70 69 70 69 69 69 70 69 70 71 72 73 73 71 66 66 67 68 69 69 68 67 67 66 66 66 65 64 64 64 63 63 63 63 63
66 65 65 65 65 61 63 67 68 68 67 68 68 69 69 69 70 71 70 70 71 72 74 65 64 65 66 67 68 68 67 67 66 66 65 65 64 64 63 63 63 63 63
64 64 63 62 62 61 62 66 66 68 68 68 69 67 68 69 70 69 70 70 70 70 71 71 70 69 63 66 67 68 68 68 67 66 66 65 65 64 63 63 63 63 63
64 62 62 60 61 60 62 65 66 65 66 69 65 63 64 66 66 67 69 68 68 69 70 70 70 71 69 64 66 67 69 69 68 67 66 66 65 64 64 63 63 63 63
63 63 60 60 61 61 63 64 64 65 66 66 65 64 57 60 65 66 67 67 66 68 67 67 68 68 70 71 68 65 67 69 69 68 67 66 65 65 64 64 64 64 63
62 61 60 59 60 63 62 64 65 65 63 65 67 67 57 59 62 65 64 67 66 67 68 66 66 66 67 68 67 65 61 62 66 68 68 67 66 66 65 65 64 64 64
59 59 59 59 59 62 62 63 64 66 66 62 65 66 69 67 63 58 64 65 67 66 66 67 68 68 69 69 66 62 58 57 60 64 66 67 67 67 66 65 65 64 64
60 59 58 57 59 61 61 61 61 63 66 66 65 64 65 65 65 62 58 60 65 67 67 67 68 68 67 68 68 64 56 55 56 60 63 65 66 66 66 66 66 65 65
60 60 59 58 58 59 60 61 61 62 62 63 64 64 62 62 60 60 59 62 63 64 64 67 65 65 65 66 65 59 55 53 55 57 60 62 64 65 66 66 66 66 66
58 58 59 58 58 59 61 63 62 62 62 63 64 62 64 63 63 64 62 62 62 65 64 66 66 66 66 65 65 58 57 52 52 55 57 59 60 62 63 64 65 66 66
61 60 60 59 60 60 60 60 59 61 62 61 63 64 63 64 62 60 63 61 58 60 62 65 66 66 66 66 63 55 60 52 51 52 53 55 57 58 59 60 61 63 64
61 59 59 59 59 59 60 59 58 58 58 58 58 61 60 58 58 59 61 60 59 57 60 64 64 65 66 67 64 65 66 58 53 51 51 52 54 55 56 57 58 59 60
62 59 58 59 58 58 59 59 58 60 58 58 58 57 57 58 57 57 58 57 56 55 54 65 63 68 65 62 64 61 61 57 53 50 49 50 51 53 54 54 55 56 57
60 61 60 60 59 59 59 59 60 59 59 59 58 57 57 58 57 57 57 58 57 56 53 60 66 65 59 59 65 64 63 61 61 51 49 49 49 50 50 51 51 52 53
63 61 60 60 60 59 60 59 59 59 58 58 59 58 58 58 57 58 57 56 57 59 59 57 64 64 60 62 63 64 66 65 63 58 52 50 49 49 49 48 49 49 49
63 64 63 61 61 61 59 59 59 58 58 59 59 58 58 59 60 59 58 58 58 58 58 57 59 62 63 63 63 61 66 67 68 59 52 49 49 49 49 48 48 48 48
61 61 61 62 62 64 63 62 60 60 60 60 61 60 60 59 59 60 59 60 62 62 62 57 56 58 60 67 64 61 61 62 60 65 60 56 55 52 48 49 48 48 48
61 61 61 62 63 62 60 60 60 60 60 60 62 63 62 61 55 59 65 65 62 59 58 57 56 57 58 60 57 59 57 58 61 65 65 64 65 64 62 52 52 48 47
52 57 58 58 57 53 38 38 46 61 61 60 59 60 61 52 52 47 47 48 55 59 56 56 56 55 56 57 58 58 57 55 52 61 59 59 62 59 49 44 42 42 42
44 44 43 46 40 39 37 38 37 50 55 58 59 58 57 57 47 54 47 43 43 42 39 48 51 54 52 45 42 51 54 54 54 45 41 45 39 36 39 40 40 40 40
38 38 38 39 38 37 36 37 37 45 49 40 39 39 39 39 38 39 43 42 34 33 34 35 33 31 31 33 34 38 38 36 36 32 33 34 34 32 33 33 36 37 36
36 35 35 34 34 34 35 36 40 41 37 35 35 34 35 34 35 36 41 35 32 30 33 33 32 32 31 31 31 35 33 34 34 31 29 31 31 30 30 29 32 34 34
34 34 32 33 33 33 34 36 38 37 33 31 31 31 32 33 33 33 34 33 28 27 28 28 28 28 29 29 30 28 29 28 28 26 27 28 30 31 29 31 31 31 32

GFSMA_sfc_temp_084.txt.gz
Temp
76 77 77 75 70 66 66 66 73 74 75 77 79 79 79 80 80 82 79 67 68 70 72 73 71 70 69 69 69 68 68 68 68 68 67 67 66 66 66 66 65 65 65
74 74 74 70 69 66 66 67 71 73 76 79 78 79 78 79 78 79 80 72 66 68 70 71 71 70 70 70 69 68 68 68 68 67 67 66 66 66 65 65 64 64 64
71 73 73 71 68 69 64 66 71 75 78 80 77 78 78 78 78 78 80 75 73 64 67 69 70 70 70 69 68 68 68 67 67 67 66 66 65 65 64 64 64 64 64
68 67 67 68 69 66 66 64 71 76 76 77 75 77 78 77 76 76 78 77 74 74 66 66 67 69 69 70 69 68 68 67 67 67 66 65 65 64 64 64 64 64 64
67 66 69 69 68 65 68 63 68 76 75 76 76 77 77 77 75 78 77 77 77 73 77 65 65 65 67 69 69 69 68 67 67 67 66 65 65 64 64 64 63 63 63
67 67 66 66 65 65 63 63 67 73 76 75 76 74 75 75 74 73 73 78 78 76 78 74 72 71 64 66 68 68 69 68 68 67 66 66 65 64 64 64 63 63 63
64 65 64 64 63 62 62 63 69 70 71 74 71 67 70 70 70 71 71 75 77 76 76 77 77 77 72 64 66 68 69 69 69 68 67 66 66 65 64 64 64 64 63
68 64 62 62 62 62 61 61 66 67 70 73 69 68 58 64 67 69 71 72 74 76 75 73 75 76 77 75 69 66 68 69 70 69 68 66 66 65 65 64 64 64 64
64 64 63 61 62 61 59 60 65 68 68 72 73 70 60 62 65 68 69 69 71 72 75 75 74 75 74 75 70 67 62 62 67 69 68 67 66 66 65 65 64 64 64
63 62 62 62 61 61 60 60 66 70 72 68 71 73 75 76 67 62 71 71 72 71 73 75 75 74 73 74 70 65 59 58 60 65 67 68 67 66 66 65 65 65 64
61 60 60 60 60 60 60 61 65 69 71 70 70 70 71 73 73 71 66 68 72 74 75 73 75 74 74 75 75 69 57 55 57 61 63 65 66 66 66 66 66 65 65
60 59 58 59 59 59 59 61 68 68 69 70 70 70 69 67 69 69 69 69 68 71 74 75 72 74 76 76 71 62 56 54 55 57 60 62 64 65 66 66 66 66 66
58 59 59 57 58 59 60 60 63 66 67 68 68 69 70 69 71 70 69 68 67 70 69 73 72 73 73 74 72 60 58 53 53 55 57 59 60 62 63 64 65 66 66
60 60 59 60 59 59 59 61 61 63 66 66 66 67 68 70 70 70 69 66 64 67 71 69 72 72 74 74 71 58 67 53 52 52 53 55 56 57 58 60 61 62 64
65 60 61 59 59 59 59 59 59 60 62 64 67 68 68 67 69 68 64 64 66 59 62 67 66 70 72 75 70 71 69 61 52 51 51 52 54 55 56 56 57 58 60
64 63 60 60 58 59 59 60 58 60 60 60 60 61 65 67 68 65 68 62 60 56 53 65 67 69 71 69 65 66 67 60 53 50 49 49 50 52 53 54 55 55 56
65 64 60 59 58 58 58 59 59 59 59 59 60 60 59 61 60 60 61 58 56 56 54 58 62 64 67 63 66 68 64 64 65 52 51 50 50 50 50 51 51 52 53
67 66 63 59 59 59 58 58 58 59 60 60 59 59 59 59 58 59 58 57 57 58 56 54 59 60 59 63 64 64 66 68 70 63 51 50 50 49 48 48 48 49 50
66 66 65 63 61 60 60 59 60 60 61 60 61 59 60 59 59 60 58 58 58 59 58 55 56 61 62 63 65 69 70 70 75 64 54 51 50 49 49 49 48 48 48
62 64 64 63 62 62 61 60 59 59 60 61 60 61 60 61 60 60 58 59 58 59 59 58 59 64 65 68 68 66 67 71 71 74 65 58 55 53 49 50 49 49 48
65 66 65 63 63 63 50 48 63 62 61 60 62 64 64 61 54 58 62 61 63 61 59 59 60 61 64 65 62 64 61 63 64 65 65 65 66 68 56 44 45 44 43
48 48 48 50 43 45 37 38 43 60 62 62 61 62 63 53 53 45 46 46 51 58 57 56 56 55 56 58 59 58 58 56 53 42 45 54 43 38 38 39 39 40 40
43 42 42 41 39 38 36 38 37 48 52 43 42 43 46 45 41 44 42 36 36 35 35 42 45 41 37 36 36 39 43 39 38 36 39 37 37 33 35 36 37 38 38
37 37 37 38 37 37 36 38 38 42 38 36 36 36 36 36 37 37 43 36 33 33 33 33 31 30 30 32 33 36 37 37 35 33 31 37 34 31 33 33 35 35 35
35 35 35 35 35 34 36 38 39 36 34 33 33 34 34 33 34 38 39 32 31 29 31 32 32 31 32 32 32 36 32 33 34 29 29 30 32 31 31 32 33 33 33
35 35 34 35 35 35 35 36 37 35 32 32 32 32 33 33 33 34 33 31 27 26 28 29 29 31 32 31 32 31 32 32 32 32 31 32 34 34 33 35 35 35 35

GFSMA_sfc_temp_090.txt.gz
Temp
68 70 71 71 70 68 67 66 66 67 68 69 70 70 71 70 71 71 68 67 68 71 72 72 72 71 71 70 70 69 69 69 69 68 67 67 67 67 66 66 66 66 66
69 69 69 69 68 67 68 66 65 65 65 67 69 70 71 71 72 70 68 66 66 68 70 72 72 72 71 70 69 69 68 68 68 68 67 67 66 66 65 65 65 65 65
69 69 68 67 68 67 66 64 64 64 64 67 68 71 72 72 74 69 68 66 64 65 67 69 70 71 70 70 69 68 68 68 68 68 67 67 66 65 65 65 65 65 65
70 69 67 67 68 66 65 63 63 63 63 64 66 65 69 72 70 70 69 68 65 67 65 66 68 68 69 69 69 69 68 68 68 68 67 66 66 65 65 64 64 64 64
71 68 67 67 67 66 64 63 62 63 61 62 62 69 68 70 68 72 70 68 66 66 65 64 65 65 67 68 69 69 69 68 68 67 67 66 65 65 65 64 64 64 64
70 68 66 66 66 64 63 63 63 62 62 62 64 69 70 66 67 65 70 69 66 66 66 65 63 65 65 67 68 69 70 69 68 68 67 67 66 65 65 64 64 64 64
67 66 65 65 65 64 64 63 62 61 60 62 60 59 63 65 65 65 67 69 67 67 66 66 65 65 63 64 66 69 70 70 69 68 68 67 66 65 65 64 64 64 64
66 65 64 63 63 63 63 63 62 60 60 61 59 60 55 58 62 64 64 65 68 68 67 68 67 66 65 63 61 66 68 70 70 69 68 67 66 65 65 65 64 64 64
66 65 64 63 63 63 63 63 62 61 59 60 62 63 55 53 56 61 61 61 63 65 66 69 69 69 66 65 64 63 62 62 67 69 68 67 66 66 65 65 65 65 64
65 65 65 64 63 63 62 62 63 62 61 58 59 66 65 63 56 53 59 61 62 64 63 66 65 67 68 66 64 61 58 58 61 65 66 68 67 66 66 65 65 65 65
67 66 65 65 63 62 62 63 61 61 61 60 60 61 62 62 64 58 54 58 60 62 63 63 64 65 68 68 65 63 57 56 57 61 64 66 67 67 66 66 65 65 65
62 62 62 62 62 62 61 62 62 61 61 61 61 62 63 60 60 61 56 58 58 61 65 64 63 64 65 64 67 62 56 55 55 58 61 63 64 65 66 66 66 66 66
59 59 60 59 60 61 61 61 61 61 61 60 60 62 65 65 65 64 60 60 58 59 61 65 66 65 67 64 65 61 58 53 53 56 58 60 61 62 63 64 65 66 66
60 60 58 58 59 60 60 60 60 60 60 60 60 61 65 63 63 63 62 59 56 57 59 61 64 65 67 66 64 58 66 53 52 52 54 56 57 58 59 60 61 63 63
63 60 59 58 58 58 59 59 59 59 59 60 60 60 61 61 63 63 63 62 59 54 55 59 59 65 66 65 63 65 64 55 51 51 51 52 54 55 56 57 58 58 60
63 61 59 59 58 58 58 58 58 59 59 60 60 59 60 61 61 61 63 61 59 57 54 61 60 61 63 66 63 63 63 58 53 51 50 50 51 53 54 54 55 55 56
63 62 60 59 58 57 58 57 57 57 57 57 57 57 58 59 58 59 60 60 59 58 55 58 60 59 58 58 61 60 60 60 61 51 49 49 49 49 50 51 52 53 54
64 62 61 60 59 58 57 57 56 56 55 55 56 56 56 57 57 58 58 58 58 59 55 53 57 56 56 58 58 59 63 65 65 59 53 51 50 49 48 48 48 48 48
63 63 62 59 58 58 57 56 57 56 55 55 56 56 57 56 56 56 56 56 56 56 56 55 55 57 57 57 59 59 59 60 64 58 53 50 48 47 45 43 43 43 44
62 62 61 60 59 58 58 58 57 57 57 56 57 58 58 57 57 57 57 56 57 56 55 54 55 56 58 60 58 58 57 59 59 63 49 44 43 42 42 42 42 42 42
51 51 49 49 48 45 43 46 56 56 56 56 57 58 56 48 42 45 55 57 56 55 55 55 54 55 56 55 50 45 47 49 45 42 48 45 43 41 39 39 40 40 40
44 44 42 42 41 44 38 39 45 49 50 49 48 48 44 42 38 36 36 35 37 43 46 47 49 43 41 38 38 39 41 43 42 37 40 42 40 35 35 36 38 38 39
39 38 39 39 38 38 37 39 40 42 39 39 38 40 41 41 41 37 35 34 34 34 33 39 34 32 32 32 33 36 38 38 38 33 35 36 36 32 34 35 37 38 38
36 35 35 36 36 36 36 36 36 36 35 34 35 35 35 36 38 36 34 32 31 32 32 32 31 30 31 32 32 34 35 35 33 31 31 32 32 29 31 31 37 37 36
34 34 34 34 34 34 36 36 35 34 32 32 33 33 34 33 35 36 33 30 29 29 34 35 35 34 34 34 33 32 31 33 32 29 27 28 33 32 32 32 33 36 36
33 32 31 32 33 33 36 36 35 33 31 30 31 32 34 33 34 34 32 31 29 30 31 32 32 33 33 33 33 28 29 29 30 29 23 27 31 31 30 33 32 28 28

GFSMA_sfc_temp_093.txt.gz
Temp
66 66 65 65 65 64 64 64 65 66 67 68 67 67 66 65 65 67 68 66 68 71 72 72 72 71 71 70 70 69 69 69 68 68 68 67 67 66 66 66 66 66 66
66 65 65 65 65 65 64 64 65 65 64 66 67 66 66 66 67 66 66 66 66 68 70 72 71 71 71 71 69 69 69 68 68 68 67 66 66 66 65 65 65 65 65
65 65 64 64 65 65 64 63 63 63 63 65 66 69 66 66 67 67 67 66 65 65 66 69 69 71 71 70 70 68 68 68 68 67 67 66 66 65 65 65 65 65 65
66 64 63 63 65 64 63 62 62 62 62 62 62 64 65 66 67 66 65 64 63 65 65 66 68 69 69 70 69 68 68 68 68 68 66 66 66 65 65 65 64 64 65
66 64 63 63 64 63 62 62 61 63 61 61 63 63 62 66 67 68 64 64 62 61 61 64 65 66 67 68 69 69 69 68 68 68 67 66 66 65 65 64 64 64 64
65 64 63 63 64 63 63 62 61 62 62 61 63 63 61 65 68 65 64 65 64 63 62 63 64 63 64 67 68 69 70 69 68 68 67 66 66 65 65 64 64 64 64
64 63 63 62 63 63 62 62 62 61 60 61 59 58 59 64 64 65 65 63 63 63 62 61 62 62 63 65 67 69 70 70 69 68 68 67 66 65 65 64 64 64 64
63 63 63 63 63 61 61 62 62 60 61 62 58 57 54 58 60 61 64 65 62 64 63 63 63 62 60 61 61 67 69 70 70 69 68 67 66 65 65 65 64 64 64
64 63 64 63 63 63 62 62 62 61 59 60 60 57 54 54 57 57 58 62 61 61 62 64 63 64 62 61 61 63 62 63 67 69 68 67 66 66 65 65 65 64 64
65 63 63 63 63 63 62 62 62 61 61 58 59 62 62 60 56 52 56 57 61 63 61 63 63 65 64 62 61 60 58 58 61 65 67 67 67 66 66 65 65 65 65
64 63 63 61 62 62 63 63 62 61 61 60 60 60 60 61 60 55 51 56 57 60 60 62 64 64 66 64 62 61 57 56 57 62 65 66 67 66 66 66 65 65 65
63 62 63 63 62 62 62 62 63 61 60 61 61 61 60 60 59 57 54 56 58 57 59 60 60 62 63 64 64 61 56 54 55 58 61 63 65 65 66 66 66 66 65
58 59 59 59 60 62 62 62 62 62 61 60 60 59 61 61 64 61 57 56 55 56 57 59 60 61 64 62 63 59 57 54 53 56 58 60 61 63 64 65 65 66 66
59 59 58 59 59 59 61 61 61 61 61 60 60 60 60 61 61 61 59 56 53 54 56 58 62 62 62 64 63 57 61 53 53 53 54 56 57 58 59 61 62 63 64
58 58 58 58 58 59 60 60 60 60 61 61 61 60 59 60 60 61 60 60 56 51 55 57 57 61 62 62 61 61 62 58 52 51 51 52 54 56 56 57 58 59 60
61 59 58 57 57 58 58 59 58 59 59 60 60 60 59 59 59 59 59 59 57 55 53 57 58 59 62 63 62 63 62 56 52 50 50 50 52 53 54 54 55 56 57
58 59 59 57 57 57 57 57 58 58 57 58 59 59 59 58 57 57 58 58 57 57 53 56 58 59 59 59 59 59 58 60 59 50 49 49 49 50 50 51 51 52 52
61 60 58 57 57 57 57 56 56 57 58 58 59 58 57 57 56 56 56 57 57 57 55 53 56 57 57 57 59 59 61 63 61 57 51 47 46 46 45 45 45 45 45
61 59 59 58 57 57 56 56 56 56 55 56 56 56 56 56 55 55 56 55 56 55 55 54 54 56 56 56 57 57 58 59 61 56 44 43 43 43 43 42 43 43 43
59 59 58 58 56 56 57 57 56 55 55 55 55 55 55 55 55 55 55 55 55 55 54 54 54 54 56 57 56 55 54 50 48 53 45 42 42 41 41 41 41 41 41
50 51 49 48 47 46 45 50 56 55 55 54 55 54 47 45 41 43 55 55 55 54 54 53 53 54 53 46 45 44 46 47 40 40 45 43 40 39 39 39 40 40 40
43 43 42 42 42 42 39 40 48 48 48 50 46 44 42 39 37 36 36 35 36 45 50 49 44 43 38 37 38 39 41 42 42 35 38 37 38 34 35 37 38 39 39
39 38 38 38 37 37 38 38 39 40 39 38 39 41 41 39 38 36 35 34 34 34 34 39 34 32 32 32 33 37 37 37 34 31 33 34 35 32 34 36 38 38 38
35 35 36 36 36 36 36 36 36 36 35 35 35 36 38 38 36 35 34 32 32 32 32 32 31 30 31 32 33 35 36 32 32 29 29 31 31 29 32 30 37 38 37
33 33 34 34 34 34 35 35 35 33 32 32 34 34 34 34 35 36 33 30 30 31 34 35 34 34 34 34 33 33 30 33 31 27 21 27 31 23 31 31 31 37 36
31 32 31 32 34 33 34 34 34 33 30 30 32 32 33 33 33 33 32 31 29 30 30 30 30 31 30 29 32 25 22 24 21 23 20 26 29 25 23 32 30 28 23

GFSMA_sfc_temp_096.txt.gz
Temp
65 65 64 64 64 64 64 63 62 63 65 67 66 66 65 65 65 65 66 65 67 71 73 73 73 72 71 70 70 69 69 69 69 69 68 67 67 67 67 66 66 66 66
65 65 65 64 64 64 64 64 63 63 63 66 66 65 65 64 66 64 66 66 66 68 71 72 73 71 71 70 69 69 68 69 68 68 67 67 66 66 66 66 65 65 66
66 65 65 65 64 64 63 62 62 62 62 65 65 64 64 64 64 64 65 65 65 65 67 69 70 70 70 70 69 69 69 68 67 68 67 66 66 66 65 65 65 65 65
66 64 64 64 65 64 64 63 62 62 62 62 62 63 63 63 64 64 65 64 63 65 64 66 67 68 70 70 69 69 68 68 67 67 67 66 66 65 65 64 64 64 65
65 64 63 63 65 64 64 63 62 62 61 61 62 62 62 62 63 65 63 63 61 60 61 64 65 65 67 68 69 69 68 68 68 67 67 66 66 65 65 64 64 64 64
65 64 62 62 64 63 62 62 62 61 62 61 62 62 61 62 62 62 63 64 61 61 61 61 64 63 64 67 67 68 69 69 68 68 67 67 66 65 64 64 64 64 64
64 63 62 62 63 62 62 62 61 60 60 61 59 60 58 60 61 63 63 62 61 61 60 60 60 61 64 65 67 68 70 70 69 69 68 67 66 65 64 64 64 64 64
64 65 63 62 63 63 62 62 61 60 60 61 58 57 53 55 58 60 62 62 60 62 61 61 61 61 61 61 62 67 69 70 70 69 67 67 66 65 65 64 64 64 64
64 64 63 62 62 62 61 62 61 61 59 60 60 57 52 51 55 57 59 60 59 60 61 62 61 62 60 60 61 63 62 63 68 69 68 67 66 66 65 65 64 64 64
64 62 62 62 63 62 62 62 62 61 61 58 59 60 58 58 55 52 56 58 58 59 58 60 61 61 61 60 60 59 58 58 61 66 68 68 67 66 66 65 65 65 65
64 63 62 62 62 62 62 62 61 60 61 60 60 58 57 57 57 55 52 53 55 61 61 60 61 61 62 61 60 60 56 56 57 61 65 66 67 66 66 66 65 65 65
61 62 61 62 62 62 60 62 62 60 60 60 61 61 59 57 56 56 55 56 56 56 60 61 60 61 62 61 62 59 55 54 55 58 61 63 65 66 66 66 66 66 65
61 62 62 62 61 61 60 62 62 61 60 59 60 60 61 61 63 61 56 56 56 55 56 58 61 62 62 62 62 58 56 53 53 55 58 60 61 62 64 65 65 66 66
61 59 59 59 60 60 61 62 62 61 61 60 60 60 60 59 61 61 60 56 52 53 55 57 58 60 61 62 61 55 60 52 52 53 54 56 57 58 59 61 62 63 64
57 56 58 58 58 58 59 59 60 61 61 61 60 60 61 60 60 61 59 60 56 51 54 55 57 59 60 60 59 58 60 54 51 50 50 52 54 55 56 57 58 59 61
57 56 57 57 57 58 58 59 59 60 60 60 60 60 60 60 58 58 60 57 57 55 52 57 57 58 60 60 58 61 61 55 50 50 49 50 50 52 53 54 55 55 56
59 59 58 57 58 57 57 58 58 58 58 59 60 60 59 60 58 57 57 57 56 56 53 54 57 58 57 58 59 58 59 60 59 50 49 49 48 48 48 48 49 50 51
60 59 58 57 57 57 57 57 57 57 57 57 59 59 58 58 57 56 56 56 55 56 55 54 55 56 57 58 58 57 59 60 58 48 44 44 44 43 43 43 44 44 45
59 59 58 56 56 57 56 56 56 55 57 58 57 58 58 58 56 55 55 55 55 55 55 54 53 55 56 55 56 56 57 57 50 45 43 42 42 42 42 42 42 43 43
58 58 58 57 57 56 56 56 56 55 55 55 56 56 57 57 55 55 54 54 54 54 54 53 53 53 54 55 54 52 52 47 46 48 42 41 41 42 42 42 42 42 42
49 50 49 48 48 47 46 51 55 54 54 54 49 48 45 44 43 46 54 54 54 53 53 53 52 52 51 47 48 44 47 45 37 38 41 40 39 39 39 40 40 40 40
42 42 41 41 40 41 38 41 49 50 51 49 44 41 40 39 37 37 37 36 37 51 52 52 50 48 39 38 39 40 42 42 40 34 38 35 37 34 36 37 38 38 38
38 37 37 37 36 36 37 38 39 41 40 40 41 41 39 38 37 36 35 35 34 34 34 42 38 35 34 33 35 38 38 37 32 30 33 32 34 32 35 37 38 38 38
35 35 35 35 35 35 35 36 36 36 35 35 36 39 37 35 35 35 34 32 32 32 32 32 31 30 31 32 34 36 35 31 30 29 28 31 31 26 32 32 38 38 37
33 33 34 34 33 33 35 35 35 34 33 33 34 34 34 33 35 37 33 31 30 30 34 34 34 33 33 33 34 34 32 32 29 21 20 27 22 22 31 31 32 37 37
31 32 31 32 33 32 34 34 34 33 31 31 32 33 33 33 34 34 32 31 28 28 29 29 28 28 29 30 31 26 22 23 26 16 20 25 21 18 19 32 26 27 22

GFSMA_sfc_temp_099.txt.gz
Temp
65 65 64 65 65 64 63 63 62 64 65 66 65 65 64 64 64 65 66 65 67 71 73 74 73 73 71 70 69 69 69 69 69 69 68 68 68 67 68 67 66 66 66
65 64 64 64 63 64 63 63 62 63 63 64 64 64 64 64 64 64 65 65 65 68 71 73 73 73 72 70 69 69 69 69 69 69 68 67 67 67 66 66 66 66 66
65 64 64 64 62 63 62 61 62 62 62 64 64 64 64 64 64 63 63 64 65 64 67 70 71 71 71 70 69 68 68 68 68 68 67 67 66 66 65 65 65 65 65
65 64 66 65 63 64 63 62 62 62 62 62 62 62 63 63 63 64 63 63 63 65 64 66 68 69 69 70 69 69 68 69 68 67 67 67 66 65 65 65 65 65 65
65 65 65 65 65 64 63 63 62 62 61 61 61 62 62 62 62 64 63 63 62 61 61 64 64 65 67 68 69 69 69 68 68 67 66 66 66 65 65 64 64 64 64
65 64 63 64 64 64 63 63 62 62 61 61 62 61 61 62 62 62 62 63 61 60 60 61 62 64 64 67 68 68 69 68 68 68 67 66 66 65 65 64 64 64 64
64 64 62 63 64 63 63 63 62 61 60 61 60 59 60 61 61 61 62 62 61 60 59 59 58 60 63 64 67 68 69 69 68 68 67 67 66 65 65 64 64 64 64
64 63 62 63 63 62 62 62 61 60 60 61 58 57 53 55 58 60 61 61 60 61 59 59 59 58 59 64 63 66 68 69 69 69 68 66 66 66 65 65 65 64 64
64 65 63 63 62 63 61 61 62 61 59 60 59 57 52 52 54 57 58 59 59 59 60 60 59 59 59 58 60 62 62 63 68 69 69 66 66 66 65 65 64 65 64
63 64 63 63 62 63 62 61 62 61 61 59 59 59 57 56 53 51 55 56 57 58 57 58 59 59 60 59 59 59 58 58 60 66 68 67 67 66 66 65 65 65 65
63 63 63 62 62 62 62 62 61 60 60 59 59 58 57 56 56 54 52 53 55 57 59 58 59 59 60 60 58 58 56 56 57 61 65 67 67 66 66 65 65 65 65
62 62 62 62 62 62 62 62 62 61 60 59 60 58 59 55 55 55 53 54 55 55 59 58 59 60 60 60 60 58 55 54 55 58 61 63 65 66 66 66 66 65 65
58 61 61 61 61 61 61 62 61 60 60 60 60 59 60 60 61 60 56 55 53 54 55 58 60 60 61 59 60 57 56 53 53 55 57 59 61 62 64 65 65 66 66
60 59 60 60 61 61 60 60 60 61 61 60 60 60 60 59 62 60 58 55 51 52 54 54 59 60 61 60 60 55 59 52 51 52 54 55 57 58 59 60 61 62 64
62 62 62 61 59 59 59 60 60 60 60 60 60 60 60 59 60 60 59 58 56 51 53 54 54 59 60 60 59 58 59 53 51 50 49 51 53 55 55 56 57 58 59
58 57 56 55 56 56 56 58 58 59 59 60 60 60 60 60 59 59 59 59 57 56 53 57 56 57 59 59 57 57 57 54 50 49 49 49 50 51 52 52 53 54 55
57 56 55 54 56 55 57 57 57 58 58 59 59 59 59 60 59 59 59 59 57 56 53 53 56 57 56 57 57 58 58 57 55 48 48 47 46 46 47 47 48 49 50
57 58 57 56 57 56 56 56 56 57 57 57 58 59 59 59 58 57 58 57 57 56 54 52 54 54 55 56 56 56 57 57 49 44 44 44 43 43 43 43 44 44 44
56 58 57 57 56 56 56 56 56 56 56 57 57 58 58 58 57 57 57 56 56 55 55 53 52 54 54 55 54 55 54 47 47 44 42 42 42 43 42 42 42 43 42
58 57 58 57 55 56 56 56 56 55 54 54 56 57 58 58 57 56 56 56 55 55 54 53 53 53 54 54 54 52 48 46 43 44 42 41 42 42 42 42 42 42 42
51 51 50 48 47 46 43 44 54 54 54 50 46 45 44 47 47 51 55 55 55 53 53 52 51 51 51 50 50 46 47 40 37 39 40 39 39 39 39 40 41 40 40
42 42 41 41 40 40 37 39 46 51 49 47 43 42 41 39 37 37 37 36 40 53 52 52 51 50 45 42 41 42 43 40 37 34 37 34 37 35 36 37 38 38 39
38 37 37 37 35 36 37 38 38 41 40 40 40 40 39 38 37 36 35 35 34 34 34 46 44 38 37 35 38 38 39 37 32 30 34 32 34 32 34 36 38 39 38
34 35 34 35 34 35 36 36 36 36 35 35 35 36 35 35 35 35 34 32 31 32 32 32 31 31 32 33 35 37 34 29 29 28 28 30 31 30 32 32 38 38 38
32 32 33 33 33 33 35 35 35 34 33 32 34 34 34 33 35 36 33 30 29 29 33 33 32 33 33 33 35 35 32 32 28 24 24 30 26 29 31 31 32 35 35
30 31 31 32 33 32 35 35 35 33 31 31 32 33 33 33 34 34 32 30 26 26 27 27 27 28 29 29 30 28 32 30 25 22 25 24 22 21 26 31 28 23 23

GFSMA_sfc_temp_102.txt.gz
Temp
68 66 65 66 64 63 63 62 62 63 64 64 64 64 65 65 65 65 65 66 68 71 73 74 73 73 71 70 70 69 69 69 69 69 68 68 67 67 67 67 67 67 67
68 66 66 66 63 63 62 62 62 62 63 64 64 64 64 64 64 64 64 64 63 67 70 73 74 73 72 71 69 69 69 69 69 69 68 67 67 67 67 66 67 66 66
67 66 65 65 65 63 62 61 61 61 62 63 63 64 64 64 64 64 64 64 64 64 65 68 71 72 72 71 70 69 68 68 68 69 67 67 66 66 66 66 66 66 66
65 64 65 65 64 64 64 63 62 62 61 62 62 63 63 64 63 63 63 64 63 65 64 66 68 69 70 71 70 70 69 68 68 68 67 66 66 66 66 66 65 65 66
65 65 66 65 64 64 63 63 62 63 61 61 62 62 63 63 63 64 63 63 62 62 64 64 65 66 68 69 70 70 70 69 68 67 67 67 67 66 66 65 65 65 65
65 65 66 65 64 64 63 63 62 62 62 61 62 62 62 62 63 63 63 63 62 61 62 63 64 64 64 67 69 70 70 69 69 68 68 67 67 66 65 65 65 64 64
65 65 65 64 64 63 64 64 63 61 61 62 60 59 60 61 61 62 63 62 62 61 61 62 62 63 65 65 67 69 70 70 69 68 68 66 66 66 65 65 64 64 64
65 65 64 63 63 63 62 63 62 61 61 61 59 57 54 55 59 61 62 62 61 61 61 61 61 60 63 66 64 67 68 70 69 69 68 66 66 65 65 65 65 64 64
65 65 64 64 63 63 62 62 62 61 59 60 60 58 53 53 55 57 60 61 60 59 60 61 60 60 60 61 63 64 62 63 67 68 68 66 66 65 65 65 65 65 65
65 65 64 63 63 63 62 62 62 62 61 59 60 60 59 57 53 51 56 58 59 59 59 60 60 60 60 60 60 59 58 58 61 66 68 67 67 66 66 65 65 65 65
64 64 63 62 63 62 62 62 61 61 62 61 60 59 57 56 56 53 52 53 56 57 58 59 60 60 60 60 60 59 56 56 57 62 65 67 67 67 66 66 65 65 65
62 62 62 62 62 62 61 61 62 61 60 60 60 59 60 57 54 54 52 55 55 55 57 58 58 60 60 60 60 57 55 54 55 58 61 63 65 66 66 66 66 66 65
61 61 61 61 62 62 62 62 61 60 60 59 60 60 60 60 59 59 57 55 54 54 55 57 59 60 61 60 60 57 55 53 53 55 57 59 61 62 64 65 65 66 66
61 62 61 62 62 61 61 61 60 60 61 60 60 60 60 60 60 58 57 56 52 53 53 54 59 60 61 60 60 54 59 52 52 52 54 55 57 58 59 60 61 62 64
59 60 59 60 60 60 59 60 59 60 60 60 60 60 60 60 60 60 61 60 57 51 52 54 53 59 60 60 59 59 60 53 51 51 51 52 54 55 56 57 57 58 59
59 59 58 58 58 58 60 59 59 59 60 60 60 59 60 60 59 58 59 59 58 56 52 56 57 57 60 60 58 59 59 54 50 49 49 49 50 52 52 53 53 54 55
59 59 59 58 57 57 56 56 56 56 57 58 59 59 59 60 58 59 59 58 57 56 53 53 57 57 57 58 57 57 57 57 50 47 47 47 47 47 48 48 49 50 50
58 58 57 57 56 56 56 56 54 57 57 57 58 58 58 59 58 59 58 57 57 57 54 52 53 54 55 58 57 57 56 51 47 44 44 44 44 44 44 44 44 44 44
58 58 57 57 56 56 56 55 56 56 56 57 57 57 57 58 58 57 58 57 57 57 56 53 52 53 53 55 55 52 48 46 46 44 42 42 43 43 43 43 43 42 42
57 56 58 57 56 55 56 56 56 55 55 53 51 53 55 57 59 59 57 58 57 55 56 54 53 53 54 54 55 50 46 45 42 43 42 41 42 42 42 42 42 42 42
54 52 50 48 47 46 45 46 53 54 52 48 45 44 41 43 47 51 57 57 56 55 55 53 53 52 52 52 51 50 45 40 38 41 39 39 39 39 39 40 41 40 40
42 42 41 41 40 40 38 40 45 48 47 45 42 41 40 39 37 37 38 36 43 55 54 53 52 51 49 47 45 47 40 38 37 36 36 34 37 35 36 36 38 39 39
37 36 36 36 35 37 37 39 39 41 39 39 38 38 38 38 37 36 36 35 35 34 35 49 49 44 41 38 41 40 41 39 33 31 35 31 34 32 34 36 38 38 38
33 34 33 34 35 36 36 36 37 37 35 35 35 35 35 34 35 35 34 32 32 32 32 33 33 32 33 34 35 38 33 30 30 28 30 29 32 31 32 33 37 38 37
31 32 33 33 33 33 35 36 35 34 33 33 34 34 33 33 34 36 32 29 28 27 32 33 32 32 33 34 35 35 32 32 27 24 25 29 27 30 31 28 30 36 36
30 31 31 32 33 32 34 35 35 33 31 31 32 32 34 33 33 32 30 28 25 25 27 27 27 27 28 28 30 30 33 28 25 24 25 26 25 26 27 28 26 27 28

GFSMA_sfc_temp_105.txt.gz
Temp
71 72 74 74 75 75 75 74 74 74 75 74 74 74 71 72 71 72 69 64 64 69 72 72 71 72 72 71 70 70 69 69 69 70 69 68 67 68 67 67 66 67 67
71 70 70 71 73 74 74 74 74 73 74 73 73 73 74 71 69 67 66 66 63 64 70 71 72 73 73 71 70 69 69 69 69 69 69 68 67 67 67 66 66 66 66
70 69 69 69 70 71 72 72 72 71 71 70 69 71 73 72 71 66 65 65 64 62 63 68 71 72 72 72 70 69 69 68 69 69 68 68 67 67 66 66 66 66 66
71 68 68 69 68 67 70 70 68 68 68 68 67 70 70 70 66 66 67 65 64 65 63 65 66 68 70 71 71 70 69 69 68 68 68 67 67 66 65 65 65 65 66
70 68 68 69 68 66 66 67 66 67 67 66 68 69 69 68 64 65 69 64 64 64 64 64 64 64 67 69 70 71 70 70 69 68 67 67 67 66 66 66 65 66 66
69 69 69 68 67 65 65 65 64 65 66 66 65 65 67 68 66 64 66 65 64 63 63 63 65 69 64 67 69 71 72 71 70 69 68 67 67 66 66 66 66 65 65
68 69 68 68 66 66 65 65 64 62 62 64 62 63 64 66 66 63 66 65 65 64 63 63 65 75 72 65 67 70 71 71 70 69 68 67 66 65 65 65 65 65 65
68 69 68 67 66 65 65 65 64 62 62 63 60 59 55 58 61 64 63 64 65 66 63 62 64 72 75 75 71 68 70 70 70 70 68 67 65 65 65 65 65 65 65
69 69 68 67 65 65 65 65 65 65 60 62 63 60 54 55 57 61 62 64 65 64 65 62 62 68 73 74 69 66 63 64 68 69 68 67 66 65 65 65 65 65 65
68 69 68 67 66 66 65 65 66 65 64 60 61 62 62 63 58 56 59 61 65 63 63 61 61 66 71 72 68 65 58 59 62 67 67 67 66 66 66 65 65 65 65
69 68 67 67 67 66 65 65 65 64 63 62 61 61 60 58 59 59 55 56 58 60 62 61 61 62 69 71 71 66 57 56 58 62 65 66 66 66 66 66 65 65 65
66 66 66 66 66 65 65 67 64 64 63 62 62 63 61 58 59 58 58 60 58 57 59 59 59 61 67 69 67 60 55 54 55 58 62 64 65 66 67 66 66 66 65
63 65 65 65 65 65 66 67 64 63 63 62 61 61 62 61 63 65 63 61 58 56 57 58 59 60 63 68 68 58 55 53 53 55 58 60 62 63 64 65 65 66 66
65 66 64 66 66 65 66 67 67 65 62 61 62 62 62 62 62 61 63 60 56 56 56 56 58 59 61 64 66 54 66 52 52 53 54 56 57 59 59 61 62 63 64
65 64 64 65 65 64 65 65 62 63 65 62 61 62 62 63 65 65 62 60 59 53 53 55 55 60 60 62 64 65 66 55 51 51 51 53 55 56 56 57 58 59 60
65 62 63 64 63 64 64 63 62 64 60 60 61 61 61 62 62 63 63 64 62 59 55 59 57 58 60 62 63 66 66 56 50 49 49 50 51 53 53 54 54 55 56
62 62 63 62 62 63 65 63 65 59 59 59 60 60 60 62 60 60 62 62 60 62 59 56 57 57 58 60 64 65 65 65 58 48 47 47 47 48 49 49 50 52 52
62 62 62 61 61 61 62 60 59 59 59 60 63 64 63 61 60 59 59 58 59 59 60 53 57 56 57 59 64 63 60 58 53 45 45 45 44 44 44 44 45 45 46
60 61 60 60 59 58 58 58 60 61 62 63 62 62 58 58 58 58 58 58 59 58 58 55 53 55 55 58 57 53 50 48 47 44 43 43 43 43 43 43 43 43 43
59 59 60 59 59 59 59 60 59 61 59 56 53 49 47 47 51 58 57 57 58 57 57 55 54 54 55 56 54 47 45 46 44 45 43 42 43 43 42 42 42 42 42
56 58 55 50 50 51 48 55 60 58 53 48 47 45 42 40 40 43 57 57 57 56 56 55 54 53 53 53 51 49 45 41 40 42 40 40 40 40 40 41 41 40 40
42 42 41 41 41 41 38 39 47 50 49 46 44 42 42 39 39 37 37 37 38 56 55 55 54 53 53 53 49 47 40 39 37 40 36 35 37 34 35 37 38 38 37
36 36 36 37 36 37 37 38 39 43 41 41 41 42 40 39 38 37 36 35 35 35 35 48 53 51 47 44 47 43 43 41 35 34 36 31 33 32 35 36 37 37 37
32 33 34 35 35 36 36 36 36 37 36 36 36 37 37 35 35 35 33 32 32 32 33 33 33 32 33 35 38 40 35 31 31 30 33 30 32 31 33 35 38 37 37
32 32 33 33 33 34 35 35 35 34 33 33 35 35 35 34 35 36 34 30 29 28 32 33 33 32 33 34 36 37 34 34 29 27 28 30 30 30 28 28 32 35 33
29 30 29 31 32 32 34 35 34 33 31 31 32 32 33 32 33 33 31 29 25 26 27 28 27 28 28 29 31 31 34 31 28 27 26 27 27 30 24 26 27 29 30

GFSMA_sfc_temp_108.txt.gz
Temp
79 85 85 86 85 83 82 82 83 82 81 81 80 80 80 79 77 78 72 65 66 68 70 74 71 73 72 71 71 70 70 70 70 70 69 69 69 69 68 67 67 67 67
79 76 82 80 85 84 83 83 82 81 81 80 78 79 79 77 72 79 79 72 64 66 67 69 69 70 72 72 70 70 69 69 70 70 69 68 68 67 67 67 66 67 67
82 75 74 74 80 85 81 80 80 79 79 78 77 78 78 77 75 77 75 68 70 62 64 66 68 70 71 72 70 69 69 69 69 69 69 67 67 67 67 66 67 67 67
83 75 75 73 75 79 80 78 77 75 76 75 75 77 76 77 75 76 72 66 69 73 65 63 63 66 70 71 71 70 70 69 69 69 68 67 67 67 67 66 67 67 66
80 73 73 74 72 72 74 75 73 74 73 72 74 74 72 74 75 75 71 66 68 70 70 63 62 64 66 69 71 71 71 69 69 69 68 68 67 66 66 66 67 67 67
76 72 72 73 70 69 71 71 70 71 71 70 70 71 72 72 72 74 73 68 66 71 66 66 64 65 62 66 69 71 71 71 70 69 68 68 67 66 66 66 66 66 66
73 71 71 70 69 69 69 70 70 68 67 69 64 63 67 70 70 71 71 70 72 70 68 64 65 65 65 63 67 69 71 71 71 69 69 68 67 65 65 65 65 66 66
73 71 71 69 69 70 69 69 67 64 66 68 63 61 58 60 66 70 68 67 69 74 69 68 64 64 65 74 72 67 70 71 71 70 69 67 66 66 65 66 65 65 65
72 70 71 70 69 71 69 69 66 66 62 64 69 63 56 56 58 64 68 68 71 69 69 71 68 65 64 66 70 68 63 65 68 69 68 67 66 66 65 65 65 65 66
74 71 71 71 71 71 69 70 68 70 69 63 64 69 63 66 63 60 64 68 70 69 67 71 69 70 66 66 68 66 59 59 63 67 68 67 67 66 66 66 65 65 65
71 72 72 72 71 70 70 69 67 70 73 70 65 63 64 63 60 63 65 64 64 68 70 67 66 69 69 68 71 69 58 56 59 63 66 66 67 67 66 66 65 65 65
68 69 71 71 72 69 68 68 71 71 69 72 72 70 67 60 61 60 63 64 67 67 66 65 64 65 63 65 69 62 56 55 56 59 62 64 65 66 66 66 66 66 65
66 67 69 69 69 69 71 70 71 71 71 70 69 70 71 71 70 66 65 66 65 67 63 63 62 62 62 62 64 61 56 53 54 56 59 61 62 63 64 65 66 66 66
68 68 68 70 70 70 68 69 70 71 70 69 67 67 65 64 65 64 62 60 55 57 60 63 61 61 62 62 62 55 68 52 52 53 55 57 59 60 60 62 63 64 64
70 68 67 67 68 67 66 68 68 69 68 67 67 65 64 65 67 68 64 63 58 53 55 62 62 62 63 63 60 60 65 54 51 51 52 53 55 57 57 58 59 60 61
71 70 68 65 65 65 65 67 68 69 66 67 66 66 64 66 65 65 68 66 67 60 57 69 66 66 62 60 58 62 64 56 51 50 50 51 52 54 55 55 56 56 58
69 68 67 64 64 64 64 64 65 67 66 66 66 67 63 68 63 63 66 66 64 63 57 61 66 67 62 62 60 60 61 64 67 49 49 49 49 49 50 51 52 53 54
65 64 64 63 63 64 65 65 65 66 66 65 64 62 64 61 60 62 61 62 63 63 62 57 59 61 63 60 59 58 60 64 66 47 47 47 47 46 46 47 47 47 48
62 62 62 62 62 63 63 65 66 65 65 66 65 66 66 66 64 66 65 60 60 62 60 58 57 60 62 58 57 54 51 49 48 45 43 43 44 44 44 44 44 44 44
60 60 61 62 62 63 65 65 63 62 62 62 60 61 59 56 53 53 56 59 58 58 58 57 57 56 58 57 53 47 45 46 45 46 45 44 43 43 42 42 42 42 42
56 58 58 58 57 58 56 63 64 63 59 56 53 52 48 42 39 40 49 54 57 56 56 55 55 54 54 54 51 49 45 42 41 42 41 41 42 41 42 42 42 41 41
40 42 43 45 44 42 39 40 55 58 53 51 47 47 45 42 40 36 37 36 36 49 56 55 55 53 54 54 53 47 40 39 36 40 37 35 38 36 37 38 39 39 39
35 36 36 37 37 38 38 39 40 44 42 42 43 44 44 42 41 41 37 36 35 35 34 45 54 51 53 53 51 45 44 43 37 36 36 31 34 32 35 37 38 38 37
32 32 32 33 34 35 36 36 36 36 35 36 36 37 37 37 36 37 35 34 32 32 33 33 33 32 33 35 48 48 43 33 33 32 35 30 33 31 33 35 37 37 36
29 29 31 32 32 33 35 35 35 33 32 32 33 34 34 34 34 36 34 31 31 31 33 33 33 33 33 34 36 40 36 36 32 30 30 31 31 28 28 29 33 36 35
28 29 28 29 32 31 33 34 34 33 30 30 31 32 33 32 33 33 32 30 26 26 28 29 28 28 28 29 31 31 36 36 30 28 29 30 29 28 24 27 29 29 30

GFSMA_sfc_temp_111.txt.gz
Temp
86 87 87 89 86 82 83 84 82 81 79 80 81 81 81 80 80 81 77 67 67 69 73 75 74 71 71 71 71 70 70 71 71 70 70 69 69 68 68 68 67 67 67
86 86 87 87 89 86 81 84 83 82 78 78 79 80 79 79 78 79 81 76 66 67 69 71 72 67 69 71 70 70 70 70 70 70 69 69 68 68 67 67 67 67 68
84 81 82 86 88 89 83 79 80 83 81 80 76 78 77 78 78 78 79 79 72 63 65 68 68 68 69 69 70 70 69 69 70 69 69 68 68 67 67 67 67 68 67
85 84 78 81 85 86 86 82 83 80 77 78 78 78 75 78 76 78 78 78 77 69 63 65 66 66 66 67 70 70 70 69 69 69 68 68 67 67 67 66 67 68 68
86 85 80 78 77 78 84 81 79 79 77 79 79 76 75 75 77 75 74 76 74 71 67 63 63 63 65 67 69 70 71 70 69 69 68 67 67 67 68 66 68 67 67
85 84 83 79 77 75 76 81 76 75 78 79 77 73 74 76 74 72 74 76 76 72 69 65 63 63 61 64 65 69 71 71 70 70 68 68 68 67 67 67 67 67 67
83 82 82 77 76 72 75 72 73 70 69 77 70 70 70 71 71 70 73 73 74 73 68 69 66 65 64 63 65 68 70 71 71 70 69 68 67 66 66 66 66 66 66
81 80 79 76 76 72 72 70 69 67 68 72 68 66 63 66 67 72 72 72 74 71 69 69 66 65 65 65 63 65 68 70 71 70 68 67 67 66 66 66 66 66 66
82 78 75 76 77 73 71 70 69 68 67 67 71 68 59 60 62 70 70 71 72 71 74 70 68 66 65 64 64 64 62 64 68 69 68 67 66 66 66 66 66 66 66
80 77 76 73 77 73 71 70 70 70 72 64 68 73 74 74 66 67 70 72 71 69 70 71 68 68 66 65 63 61 59 59 63 67 68 67 67 66 66 66 66 66 66
79 73 73 74 74 74 73 72 69 70 71 70 68 66 69 69 71 69 67 68 70 71 68 71 71 69 71 68 67 62 57 57 59 64 66 67 67 67 66 66 66 66 66
79 73 72 70 73 73 71 72 72 71 72 72 72 69 66 64 63 67 66 69 69 70 71 69 70 70 70 70 69 61 55 55 57 60 63 65 66 66 66 66 66 66 66
75 72 69 69 69 71 72 74 72 68 72 72 72 74 73 70 72 70 68 69 69 69 66 67 69 70 68 68 68 58 56 54 55 57 59 61 63 64 65 65 66 66 66
78 75 68 68 70 70 72 72 73 69 69 70 72 73 74 74 74 74 71 67 61 65 66 66 67 66 69 67 64 55 58 52 53 54 56 57 59 60 61 62 63 64 64
76 74 69 67 68 68 69 70 71 71 69 68 70 71 72 72 73 71 71 67 63 55 57 65 65 67 65 64 62 63 62 53 51 51 52 54 56 57 58 58 59 60 62
76 74 72 68 66 67 67 68 69 70 70 68 69 68 68 69 69 70 71 69 68 64 60 68 71 72 66 64 61 63 62 53 50 49 50 51 53 55 55 56 57 57 59
74 72 69 67 66 66 66 66 68 68 67 66 67 67 67 69 68 67 68 68 66 66 61 67 71 70 67 64 62 62 62 61 57 49 49 49 50 50 52 52 53 54 55
73 72 69 67 66 65 65 66 68 69 66 66 66 66 68 68 68 68 67 67 66 67 63 62 68 66 65 62 61 59 60 61 61 48 48 48 48 48 48 48 49 49 50
71 69 67 66 65 64 63 66 69 67 65 66 67 66 67 68 66 66 66 64 66 66 63 61 61 62 65 60 59 57 51 48 48 45 44 45 46 47 47 46 46 46 46
59 61 62 62 63 63 63 64 67 68 65 65 64 65 63 62 62 62 61 63 63 62 60 58 58 59 59 60 57 49 46 46 44 46 43 43 44 44 45 44 44 44 44
44 46 53 53 57 59 58 62 65 65 61 58 56 54 47 43 39 40 49 53 56 57 57 57 56 56 55 54 49 49 45 41 41 42 41 41 42 42 42 44 43 42 42
37 38 38 40 41 45 43 48 57 59 57 53 48 46 43 41 38 37 37 36 36 42 50 55 56 54 54 55 52 47 41 39 36 41 36 33 37 36 38 39 40 40 40
35 35 36 36 35 38 40 43 43 45 43 42 45 45 43 42 42 43 37 35 34 34 34 39 47 45 50 54 51 46 44 43 37 36 37 32 33 32 34 37 38 37 37
30 30 31 33 34 33 35 36 36 37 35 35 36 38 37 37 37 39 36 33 32 32 32 33 33 32 33 34 47 48 44 34 34 34 35 30 32 31 32 34 36 36 35
29 29 29 30 31 32 34 34 33 33 32 32 33 34 34 33 35 37 34 32 30 30 33 33 32 32 32 34 38 40 36 36 32 31 32 32 30 27 28 32 33 35 34
29 29 28 29 30 30 32 33 32 32 30 30 30 31 33 32 33 33 31 29 26 27 28 28 28 28 29 29 31 32 36 37 32 30 30 29 28 28 24 27 29 31 32

GFSMA_sfc_temp_114.txt.gz
Temp
76 78 77 78 77 76 75 75 75 75 75 75 75 74 73 73 73 70 69 67 67 70 74 76 76 74 72 70 69 71 70 71 70 70 69 69 69 68 68 68 67 67 67
77 78 77 77 77 78 76 75 76 76 73 72 73 73 73 72 72 72 70 66 67 67 70 74 75 72 71 70 68 68 70 70 70 70 69 68 68 68 67 67 67 67 67
77 77 76 76 76 78 75 74 74 75 73 73 71 71 71 71 71 72 70 67 64 63 66 69 71 71 71 69 66 65 69 69 70 70 69 68 67 67 67 67 67 67 68
78 75 75 74 76 76 76 74 72 71 71 70 69 69 69 70 70 70 70 69 67 65 63 65 67 69 69 69 69 66 69 69 69 69 69 68 67 67 67 66 67 67 67
79 77 76 75 74 73 73 74 73 72 70 69 70 68 68 68 69 70 69 69 67 65 64 63 63 64 66 67 69 69 69 70 69 69 68 68 67 67 66 66 67 67 67
79 77 76 74 74 72 71 72 71 70 70 70 72 71 68 68 68 68 67 68 68 66 65 64 62 62 62 65 67 67 69 70 70 70 69 68 67 67 66 67 67 66 66
78 77 76 73 72 72 72 71 70 68 67 69 66 65 65 67 67 65 66 66 68 68 65 64 63 63 62 63 65 67 70 70 70 70 69 68 67 66 66 67 67 67 66
77 77 76 74 73 71 71 71 69 65 67 67 63 62 59 61 63 65 65 65 65 66 66 64 64 63 63 63 63 65 67 69 69 70 69 67 67 66 67 67 67 67 67
77 76 75 75 72 71 70 71 69 67 66 67 68 61 56 55 59 63 64 66 65 64 66 64 64 63 64 63 63 62 61 61 67 69 69 67 67 67 67 67 67 66 66
77 75 74 74 72 71 69 69 70 69 69 65 66 69 65 63 57 56 62 64 65 64 64 64 64 64 64 63 62 60 58 58 60 66 68 67 67 67 66 67 66 66 65
74 76 74 72 72 71 70 69 69 68 69 67 66 65 65 64 63 59 56 59 63 66 64 65 64 64 64 64 63 61 56 56 57 61 66 67 67 67 66 67 66 65 65
69 73 74 71 69 70 69 69 69 68 69 69 67 66 65 63 62 59 57 58 60 61 64 63 64 65 65 64 64 60 55 54 55 59 63 65 66 66 66 67 66 66 66
62 67 71 70 69 70 70 70 69 68 68 68 67 66 65 65 65 64 60 59 59 60 60 62 63 63 65 64 65 59 56 52 53 56 60 62 63 64 65 65 66 66 66
61 65 69 70 68 69 69 69 68 69 68 67 66 66 66 66 66 66 64 61 56 57 58 58 61 62 63 63 61 55 60 52 52 54 56 58 59 60 61 62 63 64 65
58 60 64 68 68 68 68 69 68 67 67 66 65 65 66 66 67 67 65 64 58 53 54 58 58 61 62 63 61 59 60 52 51 51 52 54 56 57 58 59 60 61 62
54 57 61 68 68 67 67 67 67 68 65 66 64 64 62 61 63 64 64 62 60 57 53 59 60 60 62 62 59 62 62 53 50 50 50 51 53 55 55 56 57 58 59
53 55 60 67 67 66 67 66 67 67 67 66 65 64 62 60 63 62 63 63 61 60 56 58 61 62 60 59 60 61 62 58 55 49 49 49 50 51 52 53 53 54 55
58 57 62 67 68 66 65 66 66 66 66 64 64 64 63 64 62 63 63 61 60 60 58 56 60 59 59 60 60 59 61 61 60 51 49 48 49 48 49 50 50 50 51
51 59 65 66 67 67 65 65 66 65 65 65 65 63 63 63 62 63 62 60 60 61 59 56 55 58 60 60 59 58 56 49 49 48 47 46 47 48 47 47 48 49 49
43 45 55 63 65 64 65 65 65 64 65 65 63 61 60 60 59 58 58 57 57 58 58 57 57 57 57 58 59 51 47 47 44 45 44 44 45 45 46 46 46 47 47
38 41 41 42 45 47 51 60 64 63 63 56 51 47 43 41 40 43 51 46 47 51 53 55 55 55 55 54 52 51 46 41 40 42 41 41 42 42 43 44 45 45 45
34 35 37 38 38 39 38 43 57 61 55 49 43 41 41 39 37 36 36 35 35 38 44 48 53 54 55 56 54 50 41 39 38 40 36 34 38 37 38 40 41 41 42
32 31 33 35 35 36 37 40 42 45 45 46 44 42 41 41 39 36 35 34 33 33 33 35 40 35 37 40 46 47 45 45 38 36 37 32 33 32 36 38 39 39 39
29 29 30 31 33 34 37 36 36 36 36 35 34 35 36 36 38 36 33 31 30 31 31 31 30 30 32 33 36 46 43 34 34 33 35 30 32 31 33 34 36 36 36
29 28 29 29 29 31 34 34 33 32 32 31 32 33 33 33 36 37 32 29 28 28 32 33 32 32 32 33 34 40 36 36 32 32 32 31 31 28 31 31 33 35 35
30 30 30 29 30 29 32 33 32 31 29 29 30 31 33 32 33 33 31 29 25 25 27 27 27 27 28 28 31 30 34 37 32 31 32 29 28 28 24 28 31 32 32

GFSMA_sfc_temp_117.txt.gz
Temp
70 70 72 72 72 70 70 68 69 69 69 70 70 69 69 69 69 67 65 65 68 72 75 76 76 75 73 72 70 69 68 70 71 70 69 69 68 68 68 68 67 67 67
71 71 71 71 72 72 71 71 70 70 71 69 70 71 70 69 69 68 66 64 65 67 71 75 76 75 74 72 70 69 70 69 71 70 69 68 68 67 67 67 67 67 67
71 73 70 70 72 74 71 71 69 69 68 69 68 68 68 68 69 68 66 64 64 64 66 69 72 73 74 72 70 69 68 67 66 69 69 68 68 67 67 66 67 67 67
74 70 72 72 70 73 73 71 71 67 68 67 66 66 67 67 67 67 66 65 63 64 63 65 68 69 70 71 72 70 69 67 67 69 68 68 68 67 67 66 66 66 67
74 74 70 70 70 68 70 72 69 67 65 65 66 65 65 65 66 67 66 65 64 63 62 63 64 65 67 69 70 70 70 68 67 69 68 68 67 67 66 66 66 67 67
74 72 74 72 69 68 67 68 69 66 67 66 69 66 64 64 64 64 65 66 65 63 63 62 61 61 63 66 68 70 72 71 70 69 69 68 68 67 66 66 67 67 67
74 74 70 68 68 71 71 66 65 67 64 65 63 62 63 63 63 63 64 64 64 64 63 63 61 61 61 62 65 68 70 71 70 70 69 68 67 66 66 66 66 66 67
70 70 71 70 70 67 66 67 65 62 64 66 61 59 59 58 61 63 62 64 64 64 63 63 62 61 61 61 62 65 68 69 70 70 69 67 67 66 66 66 66 66 67
66 68 71 72 69 68 66 67 66 64 64 63 65 60 56 54 56 59 62 63 63 62 63 63 62 62 62 61 62 62 61 62 66 68 68 67 67 66 66 66 67 67 66
62 64 66 70 70 70 67 66 67 67 65 63 61 64 60 58 54 53 58 61 62 63 61 61 62 62 62 62 62 60 57 57 60 64 66 67 67 67 66 67 67 66 66
58 61 62 64 69 68 67 67 65 66 65 64 65 65 63 59 59 56 53 57 59 61 62 62 62 62 62 63 63 61 56 56 56 61 65 66 67 67 67 66 66 65 65
54 57 60 61 65 69 67 66 65 65 68 68 67 65 65 64 62 56 54 55 59 58 63 62 62 62 62 62 63 59 55 54 54 58 61 64 65 66 66 66 66 66 65
50 52 55 58 61 67 69 68 65 65 66 67 67 66 66 66 64 64 58 55 55 57 57 60 62 63 63 62 63 59 55 52 53 55 58 60 62 64 65 65 66 65 65
49 51 52 54 57 60 67 68 67 66 67 66 65 65 66 65 63 61 65 56 54 54 55 56 59 62 63 63 62 56 61 52 51 52 54 57 59 60 61 62 64 64 64
49 50 50 52 55 58 63 67 66 66 66 66 66 65 64 64 64 62 64 63 59 53 54 55 55 59 62 62 61 60 61 54 51 50 51 54 56 58 58 59 60 61 62
48 49 49 50 52 56 61 65 64 66 66 66 65 65 64 63 61 61 60 61 60 56 54 56 57 58 60 60 58 60 59 53 50 49 49 51 53 55 56 56 57 58 59
46 48 50 51 52 54 59 65 64 66 66 66 65 64 62 61 61 60 60 59 60 59 57 55 57 58 57 58 58 58 59 59 55 48 48 49 50 51 52 53 53 55 56
44 46 50 53 53 54 58 64 64 67 65 65 65 63 62 61 60 60 60 59 60 60 57 55 56 56 56 58 58 58 58 60 59 50 48 48 49 49 49 49 50 51 51
42 44 45 49 55 56 58 64 65 65 65 65 65 63 64 61 59 59 61 60 61 61 59 56 55 55 56 58 57 58 57 54 53 50 47 47 47 48 48 48 48 49 49
38 39 43 43 46 49 58 63 64 65 65 65 64 63 63 61 60 60 61 60 59 59 57 58 56 56 57 57 57 53 49 47 46 46 45 46 47 47 47 47 47 47 48
35 36 37 39 40 41 44 49 59 64 63 58 51 48 47 48 50 54 56 53 55 54 54 54 54 54 54 54 55 52 52 42 40 42 41 40 43 44 45 45 48 47 46
32 33 32 34 35 38 38 41 51 59 53 47 42 40 40 40 40 39 38 36 41 48 49 50 52 52 53 53 53 49 42 40 41 40 36 34 38 37 38 41 43 44 44
31 31 31 32 32 33 35 36 37 38 38 41 43 43 40 40 36 35 34 34 34 34 34 40 43 35 38 35 36 46 44 42 39 35 36 32 33 32 35 39 41 41 41
29 30 30 31 31 32 34 34 34 35 33 34 34 37 38 36 36 35 33 31 30 30 30 31 30 30 31 32 35 40 42 33 34 33 35 31 32 31 32 34 38 38 38
28 28 29 30 30 31 33 33 33 32 32 32 32 32 34 32 34 35 31 28 27 27 32 33 32 31 31 32 34 38 36 36 32 32 32 32 30 29 30 31 33 36 35
28 28 27 28 30 30 33 32 31 30 29 30 31 31 32 32 32 32 29 28 25 25 26 27 27 28 29 29 31 30 33 36 32 32 32 30 29 29 25 28 31 31 32

GFSMA_sfc_temp_120.txt.gz
Temp
69 70 70 69 70 69 69 68 68 68 68 68 67 67 67 67 66 66 65 66 66 69 74 77 76 75 74 72 71 71 70 70 70 69 71 69 68 68 68 68 67 67 67
71 70 70 70 69 69 70 69 68 68 68 68 67 68 68 67 67 66 65 66 64 67 71 75 75 75 75 73 71 70 70 70 69 68 70 68 68 68 67 67 67 67 67
71 72 71 69 71 70 69 69 68 68 67 67 67 67 67 67 67 66 65 64 64 63 66 69 71 73 74 73 71 70 69 69 68 67 69 68 68 67 67 66 66 66 67
72 71 70 71 70 71 70 69 68 67 67 66 66 65 66 66 66 66 65 64 63 64 62 65 67 70 72 72 71 71 70 69 68 69 69 68 68 67 66 66 66 66 66
70 68 68 70 67 70 69 69 68 68 66 65 66 65 65 65 65 66 65 64 63 62 62 63 64 65 68 70 71 72 71 70 69 68 68 69 68 67 66 66 66 66 66
68 70 69 69 66 66 68 68 69 67 67 67 68 65 63 64 64 64 65 65 63 62 62 62 62 62 64 67 69 71 72 71 70 70 68 69 68 67 66 66 66 66 66
64 64 68 69 68 67 67 67 67 64 63 64 62 60 61 62 62 63 64 64 63 62 61 61 61 60 61 63 66 69 71 72 71 70 69 68 68 67 66 66 66 66 66
58 61 61 64 68 68 68 65 67 63 65 64 62 58 57 59 60 62 62 63 63 63 62 62 61 61 61 61 62 65 68 70 71 70 69 68 67 66 66 66 66 66 66
56 57 59 61 63 66 67 66 66 66 63 62 63 60 54 55 56 58 61 62 62 62 62 62 62 61 61 61 61 61 61 62 66 69 69 67 67 66 66 66 66 66 66
53 55 56 57 58 61 64 66 66 65 65 62 63 63 60 58 55 53 58 62 62 61 61 61 61 61 61 61 61 59 57 57 60 64 66 67 66 66 66 66 66 66 66
51 53 53 55 56 58 61 64 63 64 64 63 62 63 59 58 57 54 52 57 61 61 61 61 61 61 61 61 62 60 56 53 56 61 64 65 66 66 66 66 66 66 66
48 49 51 51 54 56 59 62 65 64 63 63 64 64 64 59 57 55 53 53 57 61 61 61 61 61 61 61 62 59 55 53 53 58 61 63 64 64 65 66 66 67 66
45 46 47 48 49 52 56 58 62 64 63 63 64 64 65 66 62 59 56 54 54 56 57 60 61 62 64 62 61 57 55 52 52 54 57 60 62 62 63 64 66 66 66
44 46 46 47 48 49 51 54 57 63 64 63 65 65 64 65 64 61 62 56 52 54 54 56 60 62 64 64 61 55 60 51 51 52 54 57 58 59 60 61 63 64 65
46 47 48 48 49 49 50 52 54 58 64 64 64 65 65 65 64 64 64 59 59 50 54 54 56 60 63 64 61 60 60 54 51 50 51 53 55 57 57 58 59 61 62
44 44 45 46 47 49 50 51 52 57 62 63 65 63 63 64 63 63 64 63 61 59 54 55 56 57 61 61 59 61 60 54 50 48 48 50 52 54 55 56 57 57 59
42 42 43 44 46 47 50 51 52 54 59 62 65 65 64 63 62 62 62 62 61 59 58 54 57 58 57 58 57 59 58 57 55 48 48 48 49 50 51 53 54 55 56
40 40 42 43 46 47 50 51 52 54 57 61 62 63 64 64 63 62 61 61 61 60 59 56 55 55 56 57 58 58 59 59 57 49 48 47 47 48 48 50 50 51 51
38 39 39 41 43 45 46 54 53 53 57 62 63 62 63 63 62 62 62 60 58 59 59 56 55 56 56 56 56 57 58 56 55 50 47 46 46 47 47 48 49 50 50
35 36 37 38 39 41 42 47 54 54 58 63 62 63 64 63 63 61 60 59 58 58 58 58 56 55 55 55 57 54 51 50 50 47 45 43 46 46 46 47 48 49 48
34 34 35 35 37 37 39 39 48 57 59 60 58 59 61 61 55 57 59 59 59 58 58 57 57 54 53 54 56 53 54 46 43 43 41 38 41 43 43 46 49 48 47
31 32 32 33 33 36 35 38 44 44 45 44 43 43 43 44 46 44 42 41 52 58 57 57 56 56 54 53 52 51 46 43 45 41 38 34 37 35 37 40 41 44 45
29 28 30 32 32 32 34 35 36 36 37 37 39 41 39 39 39 40 38 38 36 36 38 49 50 44 45 38 40 45 44 44 43 36 37 32 33 32 34 37 40 42 43
27 27 28 30 31 32 33 34 35 33 33 32 32 32 35 36 35 35 36 34 33 32 32 33 33 31 31 32 35 39 40 33 34 33 35 31 32 30 32 33 37 38 40
26 26 27 28 29 31 34 33 33 32 31 30 31 32 33 32 34 34 31 30 29 27 33 34 33 32 33 33 34 37 34 36 32 32 32 32 30 28 29 31 33 35 35
25 26 26 27 30 30 33 33 31 31 29 30 31 31 33 32 32 32 30 28 25 25 27 27 27 28 29 30 32 30 33 35 32 31 32 29 29 29 26 29 30 32 32

GFSMA_sfc_temp_123.txt.gz
Temp
70 71 70 69 68 68 68 69 69 69 69 67 67 66 66 66 66 65 64 66 67 71 74 77 77 75 74 72 72 72 71 71 71 70 70 69 70 68 68 68 68 68 68
68 68 69 68 68 68 68 68 69 69 69 67 66 66 66 66 66 66 65 65 65 67 69 73 75 75 74 73 71 71 71 71 70 70 70 69 69 67 67 67 67 67 67
69 68 68 68 68 68 68 68 67 68 67 67 66 66 66 66 66 65 65 65 64 63 64 68 71 73 74 73 71 71 70 69 69 69 69 68 69 68 67 67 66 67 67
69 68 67 68 69 66 67 67 68 67 67 66 66 65 66 66 66 65 65 65 64 64 62 64 67 69 71 73 72 71 71 69 69 69 68 68 68 68 67 66 66 66 66
66 65 65 67 66 66 66 66 66 67 66 66 65 66 65 65 66 66 65 64 64 63 62 63 64 65 67 70 72 72 72 71 70 69 68 68 68 68 67 66 66 66 66
62 64 63 63 65 66 65 65 66 66 66 66 65 64 64 65 65 65 65 65 64 63 62 62 62 63 63 67 69 71 73 73 71 71 69 69 68 67 66 66 66 66 66
57 58 60 61 64 64 64 66 66 65 64 63 61 61 61 61 63 65 65 64 63 62 62 62 61 62 63 64 66 71 73 73 72 71 70 69 67 66 66 66 66 66 66
55 56 56 59 60 61 64 66 65 64 63 63 61 59 59 60 61 62 63 63 63 63 62 61 60 60 61 63 63 66 69 71 72 71 69 68 67 67 66 66 66 66 66
51 51 53 54 55 58 59 61 64 63 62 62 64 61 55 55 57 59 61 62 62 62 62 62 61 61 60 61 61 62 61 62 67 69 69 68 68 67 67 66 66 66 66
49 50 51 51 52 54 55 58 62 63 62 60 63 63 62 59 55 54 59 62 62 62 63 63 62 61 61 61 60 59 57 57 59 64 66 67 68 67 66 66 66 66 66
47 48 48 48 49 51 53 55 57 61 64 63 63 60 61 60 59 56 55 58 61 63 63 63 63 62 61 61 61 59 55 54 55 59 63 65 66 67 66 66 66 66 66
45 46 46 46 46 48 49 52 55 57 62 64 62 62 61 59 58 57 56 57 59 61 64 62 62 62 61 61 61 59 56 53 53 55 59 62 64 66 65 65 66 66 66
44 44 44 44 45 47 48 48 49 51 54 61 62 61 62 62 62 62 60 59 56 57 59 62 63 63 62 62 62 57 55 51 52 54 56 60 61 62 63 64 64 65 66
43 45 45 46 47 48 49 50 49 50 52 55 62 62 62 63 64 63 62 59 54 54 54 57 62 62 63 63 62 55 59 51 51 51 53 55 58 59 59 60 62 63 64
43 44 44 44 45 46 47 48 48 48 51 53 57 62 62 63 64 64 64 62 60 56 54 55 57 62 63 64 62 61 60 52 50 49 50 52 55 56 57 58 59 60 61
41 41 42 42 43 44 46 47 48 49 49 51 55 61 62 63 63 63 63 62 62 62 57 60 57 58 62 62 60 62 60 53 49 48 48 50 52 54 54 55 56 57 58
38 39 40 41 41 42 45 46 47 49 49 51 53 58 62 63 62 62 62 62 61 62 58 60 56 56 60 60 60 60 60 59 55 48 48 48 49 50 51 52 53 54 55
37 37 38 39 40 42 43 44 45 49 50 51 52 53 61 63 61 62 61 62 61 60 60 58 55 54 55 59 60 59 59 59 59 49 47 47 48 48 48 49 49 50 53
35 36 37 37 37 39 40 42 44 45 48 51 53 54 59 62 60 60 61 61 61 60 59 59 55 54 54 56 56 57 57 57 55 50 46 45 46 47 47 47 47 49 49
32 33 35 36 36 37 38 39 40 43 46 54 54 55 59 62 61 61 60 61 61 60 60 59 56 53 54 55 56 55 52 52 50 47 44 43 45 45 45 45 45 46 47
31 32 32 34 35 36 37 36 40 42 44 52 52 50 48 48 49 57 61 61 60 58 58 58 57 53 53 55 56 54 55 48 44 45 43 38 41 41 41 42 44 45 46
29 29 29 31 32 34 35 36 37 39 41 41 41 40 40 39 42 43 42 43 51 57 57 57 56 55 56 55 56 54 48 46 46 41 41 35 37 35 36 38 40 41 42
27 27 28 30 30 32 34 35 34 34 34 34 35 36 36 37 38 40 39 37 35 35 37 52 55 53 51 49 50 48 47 47 45 37 38 32 33 32 33 36 39 40 41
25 26 27 28 29 31 33 33 33 32 32 32 32 33 33 33 34 35 33 32 31 33 32 33 34 32 32 34 39 45 45 34 34 33 35 32 31 30 32 33 37 38 39
25 25 26 26 28 29 32 32 31 30 30 30 32 33 32 32 34 36 33 30 30 29 32 33 33 33 33 34 35 38 35 38 33 32 32 32 29 28 29 30 32 36 37
24 26 26 26 28 26 32 32 30 28 27 28 29 30 32 32 33 32 30 29 28 27 29 30 30 30 30 30 32 31 34 36 33 32 33 30 28 29 26 29 30 32 33

GFSMA_sfc_temp_126.txt.gz
Temp
68 70 70 71 70 68 70 70 70 69 69 69 66 66 66 66 66 66 65 66 66 69 74 76 77 75 74 73 72 72 72 72 72 71 70 69 70 69 68 68 68 68 68
69 69 69 69 69 67 68 69 70 69 69 69 68 67 66 66 66 66 66 65 64 67 71 74 75 75 75 73 72 71 71 71 71 71 70 69 69 69 68 67 67 68 67
67 68 67 68 67 67 67 67 68 69 68 69 67 68 67 66 66 66 66 65 65 64 65 68 71 73 74 74 72 71 71 70 70 71 70 69 69 69 67 67 67 67 67
66 66 66 66 66 67 67 67 67 67 67 66 67 67 67 66 66 66 66 66 65 65 63 64 67 69 71 73 73 72 71 70 70 71 70 69 69 69 68 67 67 67 67
59 62 65 66 66 65 66 67 67 67 66 66 66 66 66 66 66 66 65 65 65 65 64 63 63 65 67 70 73 73 73 71 71 71 70 70 70 69 67 66 66 66 66
56 56 60 62 62 62 63 64 65 66 66 67 66 65 65 65 64 65 66 66 65 65 64 64 63 64 63 67 70 72 73 73 71 71 70 69 68 68 67 66 66 66 66
52 52 53 56 59 60 61 62 63 64 64 65 63 62 62 63 63 64 64 64 64 64 64 64 63 63 64 64 67 71 73 74 73 72 70 69 68 68 67 67 66 66 66
49 51 50 52 55 56 58 62 61 61 61 63 61 59 59 59 61 62 62 62 63 63 63 63 62 63 63 65 65 67 71 72 73 72 71 68 68 68 67 66 66 66 66
48 48 49 50 51 52 54 56 58 61 61 62 63 61 55 55 57 60 61 62 63 62 63 63 62 62 63 63 63 63 62 64 68 71 70 69 68 68 67 66 66 66 66
46 47 47 48 48 49 51 53 57 58 60 59 61 63 63 59 55 54 58 60 62 63 64 64 62 63 62 62 62 60 58 58 61 66 68 68 68 68 68 67 67 66 66
44 45 46 45 45 46 47 49 50 53 57 58 61 62 62 60 60 56 53 56 60 63 64 64 64 63 62 63 63 61 55 55 56 61 64 66 67 67 67 67 67 66 66
42 44 44 43 44 45 45 47 48 48 51 55 58 61 61 60 58 58 56 56 57 64 65 64 64 64 65 64 63 59 55 53 53 56 59 61 64 65 66 67 67 66 66
41 43 44 44 45 47 48 48 48 48 48 48 52 56 63 63 63 61 59 58 59 60 58 63 64 64 65 64 64 58 56 52 53 54 56 57 60 62 62 64 66 66 65
41 43 44 44 44 46 46 47 47 48 48 48 49 52 59 62 63 62 61 59 55 57 56 60 63 64 64 64 63 56 61 52 51 51 52 54 56 58 59 60 64 63 63
41 42 41 42 43 43 44 45 46 47 48 48 49 51 53 61 62 63 63 62 59 54 55 59 58 63 64 64 62 62 61 54 50 50 50 52 54 56 56 58 59 60 61
39 39 39 40 41 42 43 43 44 46 47 48 49 50 52 57 62 62 63 62 62 61 58 62 59 59 63 63 62 63 62 54 49 48 48 49 51 53 54 55 56 57 58
37 37 38 39 40 40 42 42 44 45 45 47 49 50 51 55 58 62 62 62 62 62 59 63 60 59 61 62 62 62 61 59 56 48 48 48 48 50 51 52 52 53 55
35 35 37 37 38 38 39 40 40 42 43 45 48 49 51 54 55 60 62 62 61 62 61 59 57 55 59 61 61 60 60 60 59 49 48 47 47 48 48 49 49 50 51
33 34 35 35 36 37 38 39 39 39 41 43 47 50 52 53 52 56 61 62 62 61 61 60 58 55 57 58 58 58 59 58 57 51 47 46 47 47 47 47 47 48 49
31 32 33 34 34 36 37 37 37 39 39 42 45 47 50 52 54 55 59 61 61 60 59 59 59 54 56 56 58 56 54 55 50 47 45 45 45 45 45 44 45 46 46
30 30 31 32 33 34 35 35 37 38 39 42 44 46 46 47 45 45 56 60 60 59 58 58 58 55 55 55 55 56 56 51 47 47 44 42 43 43 42 42 42 42 43
28 28 28 29 30 32 33 34 35 34 35 35 36 37 38 38 40 38 38 38 46 59 59 58 58 56 57 57 57 55 51 48 47 44 43 36 39 36 37 38 40 40 41
27 26 26 27 27 30 32 32 32 32 32 32 33 33 35 36 36 36 34 35 34 35 35 48 56 55 55 55 57 55 50 53 51 42 41 33 34 32 35 37 39 40 40
25 26 25 26 26 29 32 31 31 29 29 30 31 31 32 32 33 34 33 32 32 32 32 33 33 33 32 34 41 48 53 40 35 34 37 34 32 31 32 33 37 38 39
24 25 25 25 25 25 31 31 28 27 27 27 28 30 31 31 33 34 33 33 31 31 34 35 34 33 34 34 35 41 38 43 33 33 34 33 30 29 30 30 32 36 37
24 25 24 25 27 25 31 31 27 25 24 25 26 28 30 30 32 32 29 29 28 28 31 32 32 32 33 32 33 31 32 35 33 33 33 32 29 30 27 29 30 31 33

GFSMA_sfc_temp_129.txt.gz
Temp
73 72 74 74 74 74 78 76 74 72 73 74 75 76 77 76 76 75 75 66 66 69 73 75 76 76 75 73 73 72 73 72 72 72 70 70 69 70 69 68 68 68 68
73 73 72 71 70 70 70 74 74 73 73 73 74 72 73 75 76 75 74 75 65 66 69 72 75 76 76 74 72 72 72 72 72 72 71 70 69 68 69 68 68 68 68
73 73 72 71 72 71 70 71 71 73 73 73 72 73 72 73 75 76 74 75 75 63 65 68 72 73 74 74 73 72 71 71 71 72 71 70 69 68 67 67 67 68 68
66 68 68 68 69 68 68 69 69 68 68 69 71 71 73 70 73 75 77 74 75 76 68 64 67 69 71 73 73 73 72 71 70 71 71 70 70 69 68 68 67 67 68
63 65 66 70 71 68 67 65 64 66 68 68 68 69 69 69 71 74 75 75 75 77 77 67 64 65 66 70 72 74 73 72 71 71 71 70 70 69 69 69 67 66 67
59 60 63 62 64 66 68 66 65 66 68 71 70 70 70 70 71 69 72 72 73 74 77 74 74 72 63 66 69 72 74 73 72 72 71 71 70 69 68 69 67 67 67
56 57 58 60 62 61 63 65 67 66 64 67 66 68 67 68 68 68 69 70 70 71 72 73 71 71 74 63 66 70 73 74 73 72 71 70 70 68 68 67 66 66 67
54 56 55 56 58 59 61 63 63 63 66 69 66 66 62 65 64 66 67 67 67 70 71 72 71 69 71 75 73 66 70 72 73 72 71 69 68 67 67 67 67 67 67
52 53 54 54 55 56 56 58 61 59 60 67 67 65 59 61 61 63 63 63 63 67 69 70 70 69 70 71 70 68 62 64 69 71 70 69 68 68 67 67 67 67 67
50 51 52 52 52 53 53 55 58 57 58 59 64 67 65 63 58 58 60 61 62 63 67 68 70 70 70 71 68 65 59 58 62 68 70 70 68 68 68 68 68 68 67
49 50 50 49 49 50 51 51 53 55 57 56 58 65 63 61 63 61 60 59 62 66 67 68 69 70 70 70 71 68 57 56 57 62 66 68 68 68 68 67 67 67 67
46 47 46 46 47 47 48 48 49 49 50 53 54 56 62 64 61 61 61 63 63 64 66 67 70 72 72 69 68 63 57 54 54 58 61 64 65 66 67 67 67 67 67
43 44 45 45 46 46 47 48 48 48 49 49 51 55 57 58 63 64 64 65 65 64 64 67 70 71 73 72 69 60 57 52 53 55 56 58 61 62 64 65 66 67 67
41 43 43 43 44 45 45 46 46 47 49 49 49 50 53 58 57 63 63 64 62 66 65 65 69 70 72 72 67 57 66 52 51 52 54 55 56 57 59 60 62 63 64
42 41 41 41 41 42 43 43 44 45 46 48 49 50 50 54 60 59 64 65 64 61 63 69 68 72 72 72 68 67 65 57 51 50 51 52 53 55 55 57 58 59 60
39 38 38 39 40 41 42 42 42 44 44 46 48 48 50 51 55 60 62 65 64 64 64 73 72 74 72 70 67 68 67 57 50 49 49 49 50 52 53 54 55 56 57
37 37 37 37 38 39 40 40 40 41 43 45 47 47 49 51 51 57 59 64 63 64 60 69 74 72 70 70 69 68 68 65 62 49 48 48 48 49 50 51 53 53 55
36 36 36 37 37 37 39 38 38 40 40 40 43 45 48 51 51 53 60 61 63 63 62 60 69 68 67 70 70 67 66 64 63 52 48 48 47 47 48 49 50 50 51
35 36 37 37 36 36 36 37 38 38 39 40 41 43 46 49 49 52 54 60 61 65 63 60 61 70 67 68 66 66 63 62 61 54 47 46 46 47 47 48 48 49 49
34 34 34 35 35 34 34 34 36 37 38 40 42 42 45 46 48 52 53 56 62 62 63 60 60 60 63 63 64 59 57 59 56 51 48 48 47 46 46 46 46 47 47
33 32 32 32 34 34 33 32 33 34 35 36 38 40 41 40 41 45 51 54 57 60 62 62 58 59 58 57 56 57 59 56 50 49 47 47 47 46 45 45 45 45 45
29 29 28 29 30 33 32 32 32 31 31 32 33 34 36 36 38 36 37 36 37 48 56 61 58 58 61 62 59 59 56 50 49 47 47 43 44 41 41 43 41 41 42
29 28 27 28 28 30 32 31 31 30 28 28 29 30 32 34 35 36 35 35 35 35 34 46 43 47 53 51 60 60 57 54 55 48 48 37 37 35 37 39 39 40 41
28 27 27 27 27 28 31 30 29 28 27 27 28 28 29 30 31 32 33 33 32 32 33 33 33 32 33 36 39 45 59 48 37 37 44 36 33 34 33 35 38 39 39
27 27 27 26 26 26 30 30 27 26 26 25 27 28 28 28 31 31 29 29 30 29 33 34 33 34 35 35 36 43 39 44 34 34 35 36 32 32 32 32 33 37 37
25 26 26 26 27 25 29 30 27 24 23 24 25 25 28 28 29 29 26 26 25 27 29 30 31 31 32 33 33 32 34 36 34 35 33 34 33 33 32 32 32 33 34

GFSMA_sfc_temp_132.txt.gz
Temp
75 76 76 79 78 81 79 79 80 81 81 82 83 84 84 84 84 86 85 68 67 69 73 75 76 76 75 73 73 73 72 72 72 72 71 70 69 70 69 69 68 68 68
73 74 75 77 78 80 80 78 75 75 78 80 80 80 82 81 83 83 85 83 66 67 69 72 75 76 76 75 73 72 72 72 72 72 71 70 69 69 69 68 68 68 68
63 74 75 73 74 77 78 76 77 75 74 75 75 75 78 80 80 81 82 85 81 64 66 68 71 73 75 75 74 72 72 71 71 71 71 70 70 69 68 68 68 68 67
64 64 68 72 73 73 72 70 73 75 72 72 72 74 77 77 78 80 81 82 84 83 67 65 67 70 72 73 74 74 73 71 71 71 71 70 69 69 68 68 69 68 67
67 69 71 65 64 69 72 74 72 73 69 68 70 71 72 75 76 79 79 82 82 82 82 69 64 66 68 70 72 74 74 73 72 71 71 70 69 69 69 68 68 69 67
65 66 70 69 70 66 68 72 74 75 73 71 70 69 68 71 76 76 79 81 83 82 82 80 74 75 64 67 69 72 74 74 73 72 72 71 70 69 68 68 68 68 68
63 64 66 67 68 68 65 63 64 66 73 75 68 66 65 66 70 75 77 80 80 81 80 81 78 81 76 64 66 70 73 75 74 73 71 71 69 69 68 68 68 68 68
61 62 62 63 64 65 66 67 65 60 63 67 65 66 62 66 72 75 75 76 77 79 79 80 79 79 80 82 75 66 70 72 73 73 71 70 68 68 67 68 68 68 68
59 59 60 60 61 62 63 64 65 64 59 61 64 63 61 62 72 74 69 71 73 75 78 78 78 79 79 80 75 71 62 64 69 72 71 69 69 68 67 67 68 67 67
57 57 57 57 56 59 59 61 64 63 59 55 59 62 65 70 64 64 65 67 71 69 74 77 76 77 78 80 73 67 60 59 62 68 70 70 69 68 67 67 67 67 67
57 56 53 52 53 54 55 53 55 58 61 62 61 59 59 66 69 64 60 64 64 67 75 75 76 78 78 80 80 72 60 57 58 63 67 69 69 69 68 67 67 67 67
55 55 52 50 49 48 49 51 51 52 51 53 58 61 58 55 61 65 62 67 67 71 73 74 77 80 81 81 76 65 58 56 56 59 63 65 67 68 68 67 67 67 67
49 50 48 47 48 48 47 48 48 49 50 50 51 54 61 63 58 56 62 67 67 74 74 75 72 75 79 81 79 64 59 54 54 56 59 61 63 65 66 66 67 67 67
44 46 46 46 46 46 46 46 46 46 47 48 49 50 51 57 63 60 55 59 64 69 73 72 76 77 76 76 75 59 73 53 51 52 54 57 59 60 61 62 63 64 65
43 44 44 44 44 44 44 44 44 44 45 46 47 49 50 52 56 62 61 57 61 61 66 73 74 78 75 77 71 72 73 60 51 51 51 52 55 57 57 58 59 60 61
41 41 41 42 43 43 44 43 42 43 42 43 46 46 49 51 52 54 61 63 65 63 64 75 78 80 79 78 73 75 76 61 51 49 49 50 51 53 54 54 55 56 58
39 40 41 41 41 42 42 41 40 41 42 42 44 45 46 49 49 52 53 60 65 67 64 70 77 77 77 77 77 76 73 75 73 50 48 49 49 50 50 51 51 53 54
39 39 39 39 40 40 41 40 39 39 39 39 41 42 44 48 47 50 51 53 60 66 66 65 71 73 74 74 75 75 74 76 76 57 49 48 48 47 47 48 49 50 51
38 38 39 38 38 38 38 38 38 36 36 38 39 40 42 45 46 48 49 51 54 62 68 64 66 71 73 74 70 71 72 72 73 58 48 47 47 47 47 47 48 48 49
36 36 37 37 37 37 36 37 37 36 34 34 36 37 41 42 43 46 46 50 53 54 62 65 65 66 69 70 68 68 63 64 64 61 53 51 49 47 46 47 47 48 48
35 35 35 35 35 35 34 34 36 35 34 32 32 34 35 36 38 38 43 47 49 51 55 62 63 62 64 65 62 61 62 63 61 56 55 52 52 51 51 46 50 48 47
34 32 32 33 33 34 31 31 32 33 32 30 29 30 32 34 36 36 36 35 35 39 44 51 59 62 64 65 62 61 59 58 52 51 53 51 50 49 49 51 47 46 45
32 31 30 30 30 31 32 30 30 30 29 28 28 28 29 31 32 34 34 33 33 33 33 37 44 35 41 37 42 45 57 60 59 59 53 47 42 41 41 41 40 41 42
30 30 29 30 29 30 30 30 29 28 27 26 27 28 28 28 29 29 30 30 30 31 32 32 32 32 33 34 40 42 41 46 45 42 46 42 36 36 35 38 39 40 40
30 29 29 28 28 28 30 29 28 27 26 25 25 26 27 27 29 30 27 26 27 27 32 33 33 33 33 34 34 38 34 39 38 34 33 36 33 32 33 33 36 38 38
29 30 29 28 28 27 29 29 26 26 24 24 25 25 27 26 27 28 26 26 25 27 28 29 29 31 32 32 33 31 30 33 35 36 32 34 33 33 33 33 34 34 33